SQ7IQO Weather Reports


time (UTC)temp
C
wind
direction
speed
KPH
gust
KPH
rain 1hr
cm
rain 24hr
cm
rain mn
cm
humidity
%
barometer
mb
20260905195737 12 4.8 20.9 0.00 10.95 0.00 91 1017.2
20260905195637 12 6.4 9.7 0.00 10.95 0.00 91 1017.1
20260905195537 12 3.2 16.1 0.00 10.95 0.00 91 1017.1
20260905195438 12 4.8 16.1 1.68 10.95 0.00 91 1017.1
20260905195337 12 4.8 9.7 1.68 10.95 0.00 91 1017.2
20260905195237 12 8.0 20.9 1.68 10.95 0.00 91 1017.1
20260905195137 12 6.4 16.1 1.68 10.95 0.00 91 1017.2
20260905195037 12 4.8 25.7 1.68 10.95 0.00 91 1017.2
20260905194937 12 4.8 9.7 3.89 11.58 0.00 91 1017.1
20260905194838 12 6.4 16.1 3.89 11.58 0.00 91 1017.1
20260905194737 12 6.4 16.1 3.89 11.58 0.00 92 1017.1
20260905194637 12 4.8 16.1 3.89 11.58 0.00 92 1017.1
20260905194537 12 4.8 16.1 3.89 11.58 0.00 92 1017.2
20260905194437 12 1.6 16.1 3.89 11.58 0.00 92 1017.1
20260905194337 12 6.4 16.1 3.89 11.58 0.00 92 1017.1
20260905194237 12 3.2 9.7 3.89 11.58 0.00 92 1017.0
20260905194137 12 4.8 20.9 3.89 12.17 0.00 92 1017.0
20260905194037 12 4.8 16.1 3.89 12.17 0.00 92 1017.1
20260905193937 12 3.2 16.1 3.89 12.17 0.00 92 1017.1
20260905193837 12 3.2 9.7 3.89 12.17 0.00 92 1017.0
20260905193737 12 4.8 16.1 3.89 12.17 0.00 92 1017.1
20260905193637 12 6.4 16.1 3.89 12.17 0.00 93 1017.1
20260905193537 12 4.8 9.7 3.89 12.17 0.00 93 1017.1
20260905193437 12 3.2 16.1 3.89 12.17 0.00 93 1017.1
20260905193337 12 3.2 9.7 3.89 12.17 0.00 93 1017.1
20260905193237 12 4.8 9.7 3.89 12.17 0.00 93 1017.1
20260905193137 12 4.8 16.1 3.89 12.17 0.00 93 1017.0
20260905193038 12 4.8 16.1 3.89 12.17 0.00 93 1017.0
20260905192937 12 4.8 85.3 3.89 12.17 0.00 93 1017.0
20260905192837 12 3.2 9.7 3.89 12.17 0.00 93 1016.9
20260905192737 12 6.4 9.7 3.89 12.17 0.00 93 1016.9
20260905192637 12 1.6 9.7 3.89 12.17 0.00 93 1016.9
20260905192537 12 4.8 9.7 3.89 12.17 0.00 93 1016.9
20260905192437 12 3.2 9.7 3.89 12.17 0.00 93 1016.9
20260905192337 12 4.8 16.1 3.89 12.17 0.00 94 1016.8
20260905192237 12 4.8 9.7 3.89 12.17 0.00 93 1016.8
20260905192137 12 3.2 16.1 3.89 12.17 0.00 94 1016.8
20260905192037 12 4.8 16.1 3.89 12.17 0.00 94 1016.8
20260905191937 12 3.2 16.1 3.89 12.17 0.00 94 1016.9
20260905191837 12 4.8 9.7 3.89 12.17 0.00 94 1016.8
20260905191737 12 3.2 4.8 3.89 12.17 0.00 94 1016.8
20260905191637 12 3.2 16.1 3.89 12.17 0.00 94 1016.8
20260905191537 12 3.2 9.7 3.89 12.17 0.00 94 1016.9
20260905191437 12 3.2 9.7 3.89 12.17 0.00 94 1330.5
20260905191337 12 1.6 4.8 3.89 12.17 0.00 94 1016.8
20260905191237 12 4.8 9.7 3.89 12.17 0.00 94 1016.8
20260905191137 12 3.2 9.7 3.89 12.17 0.00 94 1016.8
20260905191037 12 1.6 4.8 3.89 12.17 0.00 94 1016.8
20260905190937 12 4.8 9.7 3.89 12.17 0.00 94 1016.8
20260905190837 12 4.8 16.1 3.89 12.17 0.00 94 1016.8
20260905190737 12 4.8 9.7 3.89 12.17 0.00 94 1016.8
20260905190637 12 4.8 9.7 3.89 12.17 0.00 94 1016.8
20260905190537 12 6.4 16.1 3.89 12.17 0.00 94 1016.9
20260905190437 12 6.4 16.1 3.89 12.17 0.00 94 1016.9
20260905190337 12 6.4 16.1 3.89 12.17 0.00 94 1016.9
20260905190237 12 4.8 9.7 3.89 12.17 0.00 94 1017.0
20260905190137 12 4.8 16.1 3.89 12.17 0.00 94 1017.2
20260905190038 12 6.4 20.9 3.89 12.17 0.00 94 1017.2
20260905185938 12 6.4 20.9 3.89 12.17 0.00 94 1017.2
20260905185837 12 3.2 9.7 3.89 12.17 0.00 93 1017.2
20260905185737 12 6.4 16.1 3.89 12.17 0.00 93 1017.2
20260905185637 12 9.7 16.1 3.89 12.17 0.00 93 1017.3
20260905185537 12 6.4 25.7 3.89 12.17 0.00 93 1017.3
20260905185437 12 6.4 20.9 3.89 12.17 0.00 92 1017.2
20260905185337 12 6.4 20.9 2.18 11.99 0.00 93 1017.2
20260905185237 12 9.7 20.9 2.18 11.99 0.00 93 1017.1
20260905185137 12 6.4 16.1 2.18 11.99 0.00 92 1017.2
20260905185037 12 4.8 25.7 2.18 11.99 0.00 91 1017.3
20260905184937 12 6.4 16.1 2.18 11.99 0.00 91 1017.3
20260905184837 12 6.4 16.1 2.18 11.99 0.00 91 1017.3
20260905184737 13 14.5 431.3 0.00 11.79 0.00 91 1017.3
20260905184637 13 8.0 16.1 0.00 11.79 0.00 90 1017.4
20260905184537 13 4.8 32.2 0.00 11.79 0.00 87 1017.5
20260905184437 13 16.1 37.0 0.00 11.79 0.00 88 1017.3
20260905184337 13 12.9 25.7 2.18 11.79 0.00 87 1017.4
20260905184237 13 11.3 41.8 2.18 11.79 0.00 86 1017.3
20260905184137 13 16.1 25.7 2.18 11.79 0.00 88 1017.5
20260905184038 13 4.8 20.9 2.18 11.79 0.00 87 1017.4
20260905183937 13 9.7 25.7 2.18 11.79 0.00 86 1016.0
20260905183837 13 12.9 20.9 2.18 11.79 0.00 88 1017.0
20260905183737 13 12.9 20.9 2.18 11.79 0.00 88 1016.9
20260905183637 13 6.4 16.1 2.18 11.79 0.00 88 1017.0
20260905183537 13 6.4 20.9 2.18 11.79 0.00 88 1016.9
20260905183437 13 9.7 16.1 2.18 11.79 0.00 90 1017.0
20260905183337 13 6.4 20.9 2.18 11.79 0.00 90 1017.0
20260905183237 13 4.8 16.1 2.18 11.79 0.00 91 1017.0
20260905183137 13 4.8 9.7 2.18 11.79 0.00 92 1017.0
20260905183037 13 4.8 16.1 2.18 11.79 0.00 94 1017.1
20260905182937 13 3.2 9.7 2.18 11.79 0.00 94 1017.0
20260905182837 13 3.2 4.8 2.18 11.79 0.00 94 1017.1
20260905182737 13 1.6 4.8 2.18 11.79 0.00 93 1016.9
20260905182637 13 1.6 4.8 2.18 11.79 0.00 94 1016.9
20260905182537 13 1.6 9.7 2.18 11.79 0.00 94 1016.8
20260905182437 13 1.6 9.7 2.18 11.79 0.00 94 1016.7
20260905182337 13 1.6 9.7 2.18 11.79 0.00 94 1016.5
20260905182237 13 0.0 9.7 2.18 11.79 0.00 94 1016.5
20260905182137 13 0.0 4.8 2.18 11.79 0.00 93 1016.5
20260905182037 13 0.0 9.7 2.18 11.79 0.00 93 1016.5
20260905181937 13 1.6 4.8 2.18 11.79 0.00 93 1016.6
20260905181837 13 0.0 4.8 2.18 11.79 0.00 93 1016.5
20260905181737 13 0.0 4.8 2.18 11.79 0.00 93 1016.6
20260905181637 13 0.0 4.8 2.18 11.79 0.00 93 1016.6
20260905181537 13 1.6 9.7 2.18 11.79 0.00 93 1016.6
20260905181437 13 1.6 9.7 2.18 11.79 0.00 93 1016.6
20260905181337 13 0.0 4.8 2.18 11.79 0.00 92 1016.7
20260905181237 13 1.6 9.7 2.18 11.79 0.00 92 1016.7
20260905181137 13 1.6 4.8 2.18 11.79 0.00 92 1016.6
20260905181037 13 0.0 9.7 2.18 11.79 0.00 92 1016.6
20260905180937 13 1.6 4.8 2.18 11.79 0.00 92 1016.6
20260905180837 13 1.6 4.8 2.18 11.79 0.00 92 1016.6
20260905180737 13 3.2 9.7 2.18 11.79 0.00 92 1016.7
20260905180637 13 3.2 9.7 2.18 11.79 0.00 92 1016.8
20260905180537 13 1.6 9.7 2.18 11.79 0.00 93 1016.7
20260905180437 13 3.2 9.7 2.18 11.79 0.00 93 1016.8
20260905180337 13 1.6 4.8 2.18 11.79 0.00 93 1016.7
20260905180237 13 1.6 9.7 2.18 11.79 0.00 93 1016.7
20260905180137 13 1.6 9.7 2.18 11.79 0.00 93 1016.7
20260905180037 13 1.6 9.7 2.18 11.79 0.00 93 1016.7
20260905175937 13 1.6 9.7 2.18 11.79 0.00 92 1016.6
20260905175837 13 3.2 9.7 2.18 11.79 0.00 93 1016.6
20260905175737 13 4.8 9.7 2.18 11.79 0.00 93 1016.7
20260905175637 13 3.2 9.7 2.18 11.79 0.00 93 1016.7
20260905175537 13 4.8 9.7 2.18 11.79 0.00 93 1016.7
20260905175437 13 3.2 9.7 2.18 11.79 0.00 93 1016.8
20260905175337 13 3.2 9.7 2.18 11.79 0.00 93 1016.8
20260905175237 13 4.8 9.7 2.18 11.79 0.00 93 1016.8
20260905175137 13 3.2 9.7 2.18 11.79 0.00 92 1016.7
20260905175037 13 6.4 9.7 2.18 11.79 0.00 92 1016.7
20260905174937 13 4.8 20.9 2.18 11.79 0.00 92 1016.7
20260905174837 13 6.4 16.1 2.18 11.79 0.00 92 1016.8
20260905174737 13 6.4 16.1 2.18 11.79 0.00 92 1016.8
20260905174637 13 8.0 16.1 2.18 11.79 0.00 92 1016.7
20260905174537 13 6.4 16.1 2.18 11.79 0.00 92 1016.8
20260905174437 13 4.8 16.1 2.18 11.79 0.00 91 1016.7
20260905174337 13 8.0 20.9 2.18 11.79 0.00 91 1016.7
20260905174237 13 8.0 16.1 0.00 11.56 0.00 90 1016.7
20260905174137 13 6.4 9.7 0.00 11.56 0.00 89 1016.7
20260905174037 13 9.7 20.9 0.00 11.56 0.00 89 1016.6
20260905173937 13 4.8 20.9 0.00 11.56 0.00 88 1016.6
20260905173837 13 4.8 16.1 0.00 11.56 0.00 88 1016.7
20260905173737 13 4.8 16.1 0.00 11.56 0.00 88 1016.6
20260905173637 13 6.4 16.1 0.00 11.56 0.00 87 1016.6
20260905173537 13 8.0 16.1 0.00 11.56 0.00 88 1016.6
20260905173437 13 6.4 16.1 0.00 11.56 0.00 88 1016.6
20260905173337 13 8.0 16.1 0.00 11.56 0.00 88 1281.5
20260905173237 13 6.4 9.7 0.00 11.56 0.00 89 1016.6
20260905173137 13 1.6 4.8 2.18 11.56 0.00 88 1016.6
20260905173037 13 4.8 9.7 2.18 11.56 0.00 88 1016.5
20260905172937 13 8.0 20.9 2.18 11.56 0.00 91 1016.5
20260905172837 13 3.2 9.7 2.18 11.56 0.00 91 1016.4
20260905172737 13 0.0 4.8 2.18 11.56 0.00 91 1016.4
20260905172637 13 0.0 4.8 2.18 11.56 0.00 90 1016.3
20260905172537 13 1.6 9.7 4.50 11.56 0.00 91 1016.2
20260905172437 13 0.0 101.4 4.50 11.56 0.00 90 1016.2
20260905172337 13 3.2 4.8 4.50 11.56 0.00 91 1280.8
20260905172237 13 0.0 4.8 6.38 11.56 0.00 90 1280.8
20260905172137 13 0.0 4.8 6.38 11.56 0.00 90 1016.2
20260905172037 13 1.6 9.7 6.38 11.56 0.00 91 1016.2
20260905171937 13 1.6 4.8 8.69 11.56 0.00 91 1016.2
20260905171837 13 0.0 4.8 8.69 11.56 0.00 91 1016.2
20260905171737 13 0.0 4.8 8.69 11.56 0.00 91 1016.2
20260905171637 13 0.0 4.8 8.69 11.56 0.00 90 1016.1
20260905171537 13 1.6 4.8 8.69 11.56 0.00 90 1016.2
20260905171437 13 1.6 9.7 8.69 11.56 0.00 91 1016.2
20260905171337 13 0.0 4.8 8.69 11.56 0.00 90 1016.2
20260905171237 13 1.6 9.7 8.69 11.56 0.00 91 1016.2
20260905171137 13 1.6 4.8 8.69 11.56 0.00 92 1280.7
20260905171037 13 1.6 4.8 8.69 11.56 0.00 92 1016.2
20260905170937 13 0.0 4.8 8.69 11.56 0.00 91 1016.1
20260905170837 13 1.6 4.8 8.69 11.56 0.00 92 1016.1
20260905170737 13 0.0 4.8 8.69 11.56 0.00 92 1016.2
20260905170637 13 0.0 4.8 11.18 11.56 0.00 92 1016.2
20260905170537 13 0.0 9.7 11.18 11.56 0.00 92 1016.2
20260905170437 13 1.6 4.8 11.18 11.56 0.00 93 1016.1
20260905170337 13 0.0 9.7 11.18 11.56 0.00 93 1016.1
20260905170238 13 0.0 4.8 11.18 11.56 0.00 94 1016.1
20260905170137 13 0.0 9.7 11.18 11.56 0.00 94 1016.1
20260905170037 13 0.0 9.7 11.18 11.56 0.00 94 1016.1
20260905165937 13 1.6 4.8 11.18 11.56 0.00 94 1016.1
20260905165837 13 0.0 0.0 11.18 11.56 0.00 94 1016.1
20260905165737 13 0.0 4.8 11.18 11.56 0.00 94 684.4
20260905165637 13 0.0 4.8 11.18 11.56 0.00 94 684.4
20260905165537 13 0.0 4.8 11.18 11.56 0.00 94 684.4
20260905165437 13 0.0 4.8 11.18 11.56 0.00 94 1016.2
20260905165337 13 0.0 4.8 11.18 11.56 0.00 94 1016.2
20260905165237 13 0.0 4.8 11.18 11.56 0.00 94 1016.2
20260905165137 13 0.0 4.8 11.18 11.56 0.00 94 1016.2
20260905165037 13 0.0 4.8 11.18 11.56 0.00 94 1016.2
20260905164937 13 0.0 4.8 11.18 11.56 0.00 94 1016.2
20260905164837 13 1.6 9.7 11.18 11.56 0.00 94 1016.2
20260905164737 13 0.0 4.8 11.18 11.56 0.00 94 1016.2
20260905164637 13 0.0 4.8 11.18 11.56 0.00 93 1016.2
20260905164537 13 0.0 4.8 11.18 11.56 0.00 93 1016.2
20260905164437 13 0.0 0.0 11.18 11.56 0.00 93 1016.2
20260905164337 13 0.0 9.7 11.18 11.56 0.00 93 1016.2
20260905164237 13 0.0 4.8 11.18 11.56 0.00 92 1016.3
20260905164137 13 3.2 9.7 11.18 11.56 0.00 93 1016.3
20260905164037 13 1.6 4.8 11.18 11.56 0.00 93 1016.3
20260905163937 13 1.6 4.8 11.18 11.56 0.00 93 1016.3
20260905163837 13 1.6 9.7 11.18 11.56 0.00 93 1016.3
20260905163737 13 1.6 4.8 11.18 11.56 0.00 93 1016.4
20260905163637 13 1.6 4.8 11.18 11.56 0.00 92 1016.5
20260905163537 13 3.2 9.7 11.18 11.56 0.00 92 1016.5
20260905163437 13 4.8 9.7 11.18 11.56 0.00 92 1016.6
20260905163337 13 3.2 16.1 11.18 11.56 0.00 92 1016.5
20260905163237 13 3.2 9.7 11.18 11.56 0.00 93 1016.5
20260905163137 13 3.2 9.7 11.18 11.56 0.00 93 1016.5
20260905163037 13 3.2 4.8 8.89 11.33 0.00 92 1016.5
20260905162937 13 4.8 9.7 8.89 11.33 0.00 92 1281.2
20260905162837 13 3.2 9.7 8.89 11.33 0.00 91 1016.6
20260905162737 13 6.4 9.7 8.89 11.33 0.00 91 1016.8
20260905162637 13 3.2 16.1 8.89 11.33 0.00 89 1016.8
20260905162537 14 9.7 20.9 8.89 11.33 0.00 89 1016.8
20260905162437 14 9.7 20.9 6.68 11.10 0.00 90 1016.9
20260905162337 14 4.8 9.7 6.68 11.10 0.00 90 1016.8
20260905162237 14 3.2 4.8 6.68 11.10 0.00 90 1016.9
20260905162137 14 3.2 9.7 4.70 10.90 0.00 89 1016.9
20260905162037 14 4.8 16.1 4.70 10.90 0.00 89 1016.8
20260905161937 14 3.2 9.7 4.70 10.90 0.00 88 1016.9
20260905161837 14 3.2 9.7 2.49 10.69 0.00 89 1016.8
20260905161737 14 1.6 4.8 2.49 10.69 0.00 88 1016.7
20260905161637 14 0.0 4.8 2.49 10.69 0.00 90 1016.6
20260905161537 14 0.0 4.8 2.49 10.69 0.00 89 1016.4
20260905161437 15 0.0 4.8 2.49 10.69 0.00 89 1016.3
20260905161337 15 0.0 4.8 2.49 10.69 0.00 89 1016.3
20260905161237 15 0.0 4.8 2.49 10.69 0.00 89 1016.3
20260905161137 15 0.0 4.8 2.49 10.69 0.00 88 1016.3
20260905161037 15 0.0 4.8 2.49 10.69 0.00 87 1016.2
20260905160937 15 0.0 4.8 2.49 10.69 0.00 87 1016.2
20260905160837 15 0.0 4.8 2.49 10.69 0.00 87 1016.1
20260905160737 15 0.0 0.0 2.49 10.69 0.00 88 1016.1
20260905160637 15 0.0 0.0 2.49 10.69 0.00 87 1016.0
20260905160537 15 0.0 0.0 0.00 10.44 0.00 85 1015.9
20260905160437 15 0.0 0.0 0.00 10.44 0.00 85 1015.8
20260905160337 15 0.0 0.0 0.00 10.44 0.00 85 1015.8
20260905160237 15 0.0 0.0 0.00 10.44 0.00 84 1015.8
20260905160137 15 0.0 0.0 0.00 10.44 0.00 85 1015.8
20260905160037 15 0.0 0.0 0.00 10.44 0.00 84 1015.7
20260905155937 15 0.0 0.0 0.00 10.44 0.00 84 1015.7
20260905155837 15 0.0 4.8 0.00 10.44 0.00 84 1015.7
20260905155737 15 0.0 4.8 0.00 10.44 0.00 84 1015.7
20260905155637 15 0.0 0.0 0.00 10.44 0.00 84 1015.7
20260905155537 15 0.0 0.0 0.00 10.44 0.00 85 1015.7
20260905155437 15 0.0 0.0 0.00 10.44 0.00 86 1015.7
20260905155337 15 0.0 0.0 0.00 10.44 0.00 84 1015.7
20260905155237 15 0.0 4.8 0.00 10.44 0.00 85 1015.8
20260905155137 15 0.0 0.0 0.00 10.44 0.00 85 1015.8
20260905155037 15 0.0 0.0 0.00 10.44 0.00 85 1015.8
20260905154937 15 0.0 0.0 0.00 10.44 0.00 84 1015.8
20260905154837 15 0.0 0.0 0.00 10.44 0.00 84 1015.8
20260905154737 15 0.0 0.0 0.00 10.44 0.00 84 1015.8
20260905154637 15 0.0 4.8 0.00 10.44 0.00 85 1015.9
20260905154537 15 0.0 0.0 0.00 10.44 0.00 84 1015.9
20260905154437 15 0.0 0.0 0.00 10.44 0.00 84 1015.9
20260905154337 15 0.0 0.0 0.00 10.44 0.00 83 1015.9
20260905154237 15 0.0 4.8 0.00 10.44 0.00 82 1015.9
20260905154137 15 0.0 4.8 0.00 10.44 0.00 82 1015.8
20260905154037 15 0.0 4.8 0.00 10.44 0.00 83 1015.8
20260905153937 15 0.0 4.8 0.00 10.44 0.00 83 2612.3
20260905153837 15 0.0 0.0 0.00 10.44 0.00 83 1015.8
20260905153737 15 0.0 4.8 0.00 10.44 0.00 83 1015.8
20260905153637 15 0.0 4.8 0.00 10.44 0.00 82 1015.8
20260905153537 15 0.0 4.8 0.00 10.44 0.00 83 1015.8
20260905153437 15 0.0 4.8 0.00 10.44 0.00 84 1015.8
20260905153337 15 0.0 0.0 0.00 10.44 0.00 83 1015.8
20260905153237 15 0.0 0.0 0.00 10.44 0.00 82 1015.8
20260905153137 16 0.0 0.0 0.00 10.44 0.00 81 1015.7
20260905153037 16 0.0 4.8 4.50 10.44 0.00 81 1015.7
20260905152937 16 0.0 4.8 4.50 10.44 0.00 81 1015.7
20260905152837 16 0.0 4.8 4.50 10.44 0.00 81 1015.7
20260905152737 16 0.0 0.0 4.50 10.44 0.00 79 1015.7
20260905152637 16 0.0 4.8 6.68 10.44 0.00 79 1015.7
20260905152537 16 0.0 0.0 6.68 10.44 0.00 77 1015.7
20260905152437 16 0.0 4.8 6.68 10.44 0.00 79 1015.6
20260905152337 16 0.0 4.8 6.68 10.44 0.00 79 1015.7
20260905152237 16 0.0 0.0 6.68 10.44 0.00 78 1280.9
20260905152137 16 0.0 0.0 6.68 10.44 0.00 82 1015.7
20260905152037 16 0.0 0.0 6.68 10.44 0.00 80 1015.7
20260905151937 16 0.0 4.8 6.68 10.44 0.00 79 1015.7
20260905151837 16 0.0 4.8 6.68 10.44 0.00 79 1015.7
20260905151737 16 0.0 4.8 6.68 10.44 0.00 78 1015.8
20260905151637 16 0.0 4.8 6.68 10.44 0.00 80 1015.8
20260905151537 16 0.0 0.0 6.68 10.44 0.00 80 1015.8
20260905151437 16 0.0 0.0 6.68 10.44 0.00 79 1015.8
20260905151337 16 0.0 0.0 6.68 10.44 0.00 79 1015.8
20260905151237 16 0.0 4.8 6.68 10.44 0.00 78 1015.8
20260905151137 16 0.0 4.8 6.68 10.44 0.00 81 1015.8
20260905151037 16 0.0 4.8 6.68 10.44 0.00 79 1015.8
20260905150937 16 1.6 4.8 6.68 10.44 0.00 77 1015.8
20260905150837 16 0.0 4.8 6.68 10.44 0.00 78 1015.7
20260905150737 16 1.6 4.8 6.68 10.44 0.00 78 1015.8
20260905150637 16 0.0 4.8 6.68 10.44 0.00 81 1015.7
20260905150538 16 0.0 0.0 6.68 10.44 0.00 80 1015.8
20260905150437 16 0.0 4.8 6.68 10.44 0.00 79 1176.9
20260905150337 16 0.0 4.8 6.68 10.44 0.00 78 1015.8
20260905150237 16 0.0 4.8 6.68 10.44 0.00 78 1015.8
20260905150137 16 0.0 4.8 6.68 10.44 0.00 80 1015.8
20260905150037 16 0.0 4.8 6.68 10.44 0.00 77 1015.7
20260905145937 16 0.0 4.8 6.68 10.44 0.00 76 1015.7
20260905145837 16 0.0 4.8 6.68 10.44 0.00 80 1015.7
20260905145737 16 0.0 0.0 6.68 10.44 0.00 82 1015.7
20260905145637 16 0.0 4.8 6.68 10.44 0.00 80 1015.7
20260905145537 16 0.0 4.8 6.68 10.44 0.00 81 1015.7
20260905145437 16 0.0 4.8 6.68 10.44 0.00 79 1015.7
20260905145337 16 1.6 9.7 6.68 10.44 0.00 79 1015.7
20260905145237 16 0.0 4.8 6.68 10.44 0.00 83 1015.7
20260905145137 16 0.0 0.0 6.68 10.44 0.00 82 1015.7
20260905145037 15 0.0 4.8 6.68 10.44 0.00 85 1015.7
20260905144937 15 0.0 4.8 6.68 10.44 0.00 82 1015.7
20260905144837 15 1.6 9.7 6.68 10.44 0.00 82 1572.4
20260905144737 15 0.0 4.8 6.68 10.44 0.00 83 1015.7
20260905144637 15 0.0 4.8 6.68 10.44 0.00 80 1015.8
20260905144537 16 0.0 4.8 6.68 10.44 0.00 85 1015.7
20260905144437 16 0.0 4.8 6.68 10.44 0.00 81 1015.8
20260905144337 15 0.0 9.7 6.68 10.44 0.00 80 1015.8
20260905144237 16 1.6 4.8 6.68 10.44 0.00 85 1015.8
20260905144137 16 1.6 4.8 6.68 10.44 0.00 85 1015.8
20260905144037 15 0.0 4.8 6.68 10.44 0.00 81 1015.8
20260905143937 15 1.6 4.8 6.68 10.44 0.00 84 1015.8
20260905143837 15 1.6 4.8 6.68 10.44 0.00 81 1015.7
20260905143737 15 1.6 9.7 6.68 10.44 0.00 84 1015.8
20260905143637 15 1.6 4.8 6.68 10.44 0.00 86 1015.8
20260905143537 14 1.6 4.8 6.68 10.44 0.00 89 1015.8
20260905143437 13 0.0 4.8 6.68 10.44 0.00 89 1015.8
20260905143337 13 0.0 4.8 6.68 10.44 0.00 89 1015.8
20260905143237 13 0.0 4.8 6.68 10.44 0.00 89 1015.8
20260905143137 13 0.0 4.8 6.68 10.44 0.00 88 1015.9
20260905143037 13 3.2 9.7 6.68 10.44 0.00 89 1015.9
20260905142937 13 3.2 9.7 6.68 10.44 0.00 88 1016.0
20260905142837 13 3.2 9.7 6.68 10.44 0.00 86 1016.0
20260905142737 13 3.2 9.7 4.50 10.21 0.00 85 1016.1
20260905142637 14 6.4 16.1 2.18 9.98 0.00 83 1016.2
20260905142537 14 6.4 16.1 2.18 9.98 0.00 81 1016.2
20260905142437 15 3.2 16.1 0.00 9.78 0.00 78 1016.2
20260905142337 15 6.4 9.7 0.00 9.78 0.00 78 1016.1
20260905142237 15 3.2 9.7 0.00 9.78 0.00 77 1016.0
20260905142137 15 3.2 16.1 0.00 9.78 0.00 76 1015.9
20260905142037 15 3.2 9.7 0.00 9.78 0.00 76 1015.8
20260905141937 15 3.2 9.7 0.00 9.78 0.00 73 1015.8
20260905141837 15 4.8 16.1 0.00 9.78 0.00 73 1015.9
20260905141737 15 3.2 9.7 0.00 9.78 0.00 72 1015.8
20260905141637 15 4.8 16.1 0.00 9.78 0.00 72 1015.9
20260905141537 16 6.4 16.1 0.00 9.78 0.00 72 1015.8
20260905141437 16 6.4 9.7 0.00 9.78 0.00 71 1015.8
20260905141337 16 3.2 9.7 0.00 9.78 0.00 71 1015.9
20260905141237 16 1.6 9.7 0.00 9.78 0.00 70 1015.8
20260905141137 17 4.8 9.7 0.00 9.78 0.00 67 1015.8
20260905141037 17 3.2 16.1 0.00 9.78 0.00 64 1015.8
20260905140937 18 4.8 9.7 0.00 9.78 0.00 62 1015.7
20260905140837 18 4.8 16.1 0.00 9.78 0.00 60 1015.7
20260905140737 19 4.8 9.7 0.00 9.78 0.00 58 1015.7
20260905140637 19 4.8 16.1 0.00 9.78 0.00 57 1015.7
20260905140537 19 4.8 20.9 0.00 9.78 0.00 57 1015.5
20260905140437 19 3.2 9.7 0.00 9.78 0.00 57 1015.4
20260905140337 18 6.4 20.9 0.00 9.78 0.00 58 760.2
20260905140237 18 9.7 37.0 0.00 9.78 0.00 58 1015.2
20260905140137 19 6.4 16.1 0.00 9.78 0.00 57 1015.2
20260905140037 19 8.0 25.7 0.00 9.78 0.00 57 1015.3
20260905135937 19 11.3 25.7 0.00 9.78 0.00 56 1015.2
20260905135837 20 9.7 37.0 0.00 9.78 0.00 56 1015.3
20260905135637 19 6.4 16.1 0.00 9.78 0.00 57 1015.3
20260905135537 19 9.7 25.7 0.00 9.78 0.00 57 1015.2
20260905135437 19 8.0 20.9 0.00 9.78 0.00 57 1015.2
20260905135337 19 11.3 32.2 0.00 9.78 0.00 56 1015.3
20260905135237 20 9.7 16.1 0.00 9.78 0.00 55 1015.3
20260905135137 20 8.0 20.9 0.00 9.78 0.00 53 1015.2
20260905135037 20 8.0 20.9 0.00 9.78 0.00 52 1015.2
20260905134937 20 9.7 20.9 0.00 9.78 0.00 53 1015.2
20260905134837 20 9.7 20.9 0.00 9.78 0.00 53 1015.2
20260905134737 20 6.4 20.9 0.00 9.78 0.00 55 1015.2
20260905134637 20 4.8 9.7 0.00 9.78 0.00 55 1015.2
20260905134537 20 6.4 20.9 0.00 9.78 0.00 53 1277.7
20260905134437 20 6.4 16.1 0.00 9.78 0.00 52 1015.1
20260905134337 21 6.4 16.1 0.00 9.78 0.00 52 1015.1
20260905134237 20 6.4 16.1 0.00 9.78 0.00 52 1015.2
20260905134137 20 6.4 16.1 0.00 9.78 0.00 52 1015.1
20260905134037 20 6.4 16.1 0.00 9.78 0.00 52 1015.1
20260905133937 20 6.4 16.1 0.00 9.78 0.00 53 1015.1
20260905133837 20 8.0 25.7 0.00 9.78 0.00 52 1015.1
20260905133737 20 9.7 20.9 0.00 9.78 0.00 53 1015.1
20260905133637 20 9.7 41.8 0.00 9.78 0.00 53 1015.1
20260905133537 20 9.7 25.7 0.00 9.78 0.00 52 1015.1
20260905133437 20 9.7 20.9 0.00 9.78 0.00 54 1015.1
20260905133337 20 6.4 25.7 0.00 9.78 0.00 55 1015.1
20260905133237 20 4.8 9.7 0.00 9.78 0.00 55 1015.0
20260905133137 19 3.2 16.1 0.00 9.78 0.00 56 1015.0
20260905133037 19 3.2 9.7 0.00 9.78 0.00 56 1015.0
20260905132937 19 3.2 9.7 0.00 9.78 0.00 55 1015.0
20260905132837 19 3.2 16.1 0.00 9.78 0.00 55 1015.0
20260905132737 18 6.4 25.7 0.00 9.78 0.00 55 1015.0
20260905132637 18 6.4 9.7 0.00 9.78 0.00 55 1015.0
20260905132537 18 6.4 16.1 0.00 9.78 0.00 55 1015.0
20260905132437 18 3.2 16.1 0.00 9.78 0.00 55 1015.0
20260905132337 18 8.0 20.9 0.00 9.78 0.00 55 1015.0
20260905132237 18 6.4 16.1 0.00 9.78 0.00 55 1015.1
20260905132137 18 6.4 16.1 0.00 9.78 0.00 55 1015.1
20260905132037 18 6.4 20.9 0.00 9.78 0.00 54 1015.1
20260905131937 18 9.7 20.9 0.00 9.78 0.00 55 1015.1
20260905131837 19 11.3 20.9 0.00 9.78 0.00 54 1011.0
20260905131737 19 6.4 20.9 0.00 9.78 0.00 53 1015.1
20260905131637 19 9.7 37.0 0.00 9.78 0.00 53 1015.0
20260905131537 20 11.3 16.1 0.00 9.78 0.00 52 1015.1
20260905131437 20 8.0 20.9 0.00 9.78 0.00 52 1015.1
20260905131337 20 9.7 16.1 0.00 9.78 0.00 52 1015.1
20260905131237 20 9.7 16.1 0.00 9.78 0.00 52 1015.1
20260905131137 20 6.4 25.7 0.00 9.78 0.00 51 1015.0
20260905131037 20 4.8 9.7 0.00 9.78 0.00 52 1015.0
20260905130937 20 8.0 16.1 0.00 9.78 0.00 51 1015.1
20260905130837 21 4.8 16.1 0.00 9.78 0.00 51 1015.1
20260905130737 21 8.0 20.9 0.00 9.78 0.00 50 1015.0
20260905130637 21 1.6 9.7 0.00 9.78 0.00 53 1015.1
20260905130537 21 1.6 16.1 0.00 9.78 0.00 52 1015.0
20260905130437 21 6.4 16.1 0.00 9.78 0.00 53 1015.1
20260905130337 20 3.2 9.7 0.00 9.78 0.00 51 1015.1
20260905130237 20 8.0 32.2 0.00 9.78 0.00 52 1015.1
20260905130137 20 9.7 20.9 0.00 9.78 0.00 52 1015.0
20260905130037 21 8.0 16.1 0.00 9.78 0.00 54 1029.0
20260905125937 20 6.4 16.1 0.00 9.78 0.00 52 1015.1
20260905125837 20 4.8 9.7 0.00 9.78 0.00 52 1015.1
20260905125737 20 6.4 20.9 0.00 9.78 0.00 52 1015.0
20260905125637 20 8.0 16.1 0.00 9.78 0.00 51 1015.1
20260905125537 20 6.4 16.1 0.00 9.78 0.00 53 1015.1
20260905125437 20 3.2 20.9 0.00 9.78 0.00 52 1015.1
20260905125337 20 8.0 20.9 0.00 9.78 0.00 53 1015.1
20260905125237 20 6.4 9.7 0.00 9.78 0.00 52 1015.2
20260905125137 20 11.3 25.7 0.00 9.78 0.00 51 1015.1
20260905125037 20 12.9 32.2 0.00 9.78 0.00 51 1015.2
20260905124937 20 9.7 20.9 0.00 9.78 0.00 51 1015.2
20260905124837 20 9.7 16.1 0.00 9.78 0.00 51 1015.2
20260905124737 20 9.7 37.0 0.00 9.78 0.00 51 1015.2
20260905124637 20 9.7 16.1 0.00 9.78 0.00 52 1015.2
20260905124537 20 6.4 16.1 0.00 9.78 0.00 52 1015.2
20260905124437 20 6.4 16.1 0.00 9.78 0.00 52 1015.1
20260905124337 20 6.4 16.1 0.00 9.78 0.00 52 1015.2
20260905124237 20 6.4 16.1 0.00 9.78 0.00 52 1015.2
20260905124137 20 6.4 20.9 0.00 9.78 0.00 51 1015.2
20260905124037 20 6.4 20.9 0.00 9.78 0.00 51 1015.2
20260905123937 20 9.7 20.9 0.00 9.78 0.00 50 1015.3
20260905123837 20 6.4 16.1 0.00 9.78 0.00 52 1015.2
20260905123737 20 6.4 25.7 0.00 9.78 0.00 51 1015.2
20260905123637 20 8.0 16.1 0.00 9.78 0.00 52 1015.2
20260905123537 20 6.4 20.9 0.00 9.78 0.00 53 1015.3
20260905123437 19 8.0 20.9 0.00 9.78 0.00 54 1015.3
20260905123337 19 9.7 20.9 0.00 9.78 0.00 53 1015.3
20260905123237 19 8.0 32.2 0.00 9.78 0.00 55 1015.3
20260905123137 18 11.3 215.7 0.00 9.78 0.00 56 1015.4
20260905123037 19 8.0 25.7 0.00 9.78 0.00 55 1015.3
20260905122937 19 8.0 25.7 0.00 9.78 0.00 53 1015.3
20260905122837 20 11.3 25.7 0.00 9.78 0.00 54 1015.3
20260905122737 20 8.0 16.1 0.00 9.78 0.00 54 1114.0
20260905122637 20 1.6 16.1 0.00 9.78 0.00 54 1015.4
20260905122537 20 9.7 20.9 0.00 9.78 0.00 53 1015.3
20260905122437 20 9.7 20.9 0.00 9.78 0.00 53 1015.3
20260905122337 20 8.0 16.1 0.00 9.78 0.00 53 1015.4
20260905122237 20 8.0 20.9 0.00 9.78 0.00 53 1015.3
20260905122137 20 6.4 16.1 0.00 9.78 0.00 53 1015.2
20260905122037 20 9.7 20.9 0.00 9.78 0.00 53 1015.2
20260905121937 20 9.7 20.9 0.00 9.78 0.00 54 1015.2
20260905121837 19 8.0 20.9 0.00 9.78 0.00 54 1015.3
20260905121737 19 12.9 32.2 0.00 9.78 0.00 55 1015.4
20260905121637 19 14.5 41.8 0.00 9.78 0.00 54 1015.4
20260905121537 20 17.7 25.7 0.00 9.78 0.00 53 1015.3
20260905121437 20 9.7 20.9 0.00 9.78 0.00 53 1015.4
20260905121337 20 4.8 9.7 0.00 9.78 0.00 53 1015.3
20260905121237 20 9.7 20.9 0.00 9.78 0.00 53 1015.3
20260905121137 20 9.7 25.7 0.00 9.78 0.00 52 1015.3
20260905121037 20 9.7 32.2 0.00 9.78 0.00 52 1015.3
20260905120937 20 9.7 32.2 0.00 9.78 0.00 52 1015.3
20260905120837 20 6.4 20.9 0.00 9.78 0.00 54 1015.3
20260905120737 20 9.7 25.7 0.00 9.78 0.00 53 1015.3
20260905120637 20 14.5 20.9 0.00 9.78 0.00 55 1015.3
20260905120537 20 9.7 25.7 0.00 9.78 0.00 53 1015.3
20260905120437 20 9.7 16.1 0.00 9.78 0.00 54 1015.4
20260905120337 20 11.3 41.8 0.00 9.78 0.00 53 1015.4
20260905120237 20 12.9 25.7 0.00 9.78 0.00 53 1015.4
20260905120137 20 8.0 20.9 0.00 9.78 0.00 54 1015.3
20260905120037 20 9.7 25.7 0.00 9.78 0.00 55 1015.3
20260905115937 20 4.8 25.7 0.00 9.78 0.00 54 1015.3
20260905115837 20 8.0 16.1 0.00 9.78 0.00 55 1015.2
20260905115637 20 9.7 41.8 0.00 9.78 0.00 54 1015.2
20260905115537 20 9.7 37.0 0.00 9.78 0.00 54 1015.2
20260905115437 20 9.7 25.7 0.00 9.78 0.00 54 1015.3
20260905115337 20 11.3 41.8 0.00 9.78 0.00 53 1015.3
20260905115237 20 12.9 32.2 0.00 9.78 0.00 53 1015.3
20260905115137 20 11.3 32.2 0.00 9.78 0.00 53 1015.3
20260905115037 19 9.7 20.9 0.00 9.78 0.00 55 1015.2
20260905114937 20 11.3 25.7 0.00 9.78 0.00 54 1015.2
20260905114837 21 9.7 20.9 0.00 9.78 0.00 53 1015.2
20260905114737 20 4.8 9.7 0.00 9.78 0.00 53 1015.3
20260905114637 20 4.8 9.7 0.00 9.78 0.00 54 1015.2
20260905114537 19 3.2 16.1 0.00 9.78 0.00 54 1015.3
20260905114438 18 8.0 20.9 0.00 9.78 0.00 55 1015.2
20260905114337 18 11.3 32.2 0.00 9.78 0.00 55 1015.2
20260905114237 18 16.1 25.7 0.00 9.78 0.00 57 1015.3
20260905114137 18 11.3 20.9 0.00 9.78 0.00 57 1015.3
20260905114037 18 8.0 20.9 0.00 9.78 0.00 56 1015.3
20260905113937 18 12.9 25.7 0.00 9.78 0.00 56 1015.3
20260905113837 18 9.7 20.9 0.00 9.78 0.00 56 1015.4
20260905113737 19 9.7 20.9 0.00 9.78 0.00 56 1015.3
20260905113637 19 6.4 20.9 0.00 9.78 0.00 55 1015.3
20260905113537 19 8.0 16.1 0.00 9.78 0.00 56 1015.3
20260905113437 18 6.4 20.9 0.00 9.78 0.00 56 1015.2
20260905113337 18 8.0 20.9 0.00 9.78 0.00 56 1015.2
20260905113237 19 11.3 32.2 0.00 9.78 0.00 54 1015.2
20260905113137 20 12.9 41.8 0.00 9.78 0.00 54 1015.2
20260905113037 20 9.7 20.9 0.00 9.78 0.00 54 1015.2
20260905112937 20 9.7 20.9 0.00 9.78 0.00 55 1015.2
20260905112837 20 4.8 20.9 0.00 9.78 0.00 55 1015.2
20260905112737 19 6.4 9.7 0.00 9.78 0.00 54 1015.2
20260905112637 19 8.0 16.1 0.00 9.78 0.00 55 1015.2
20260905112537 19 14.5 37.0 0.00 9.78 0.00 54 1015.3
20260905112437 19 11.3 25.7 0.00 9.78 0.00 56 1015.4
20260905112337 18 6.4 32.2 0.00 9.78 0.00 56 1015.3
20260905112237 18 14.5 37.0 0.00 9.78 0.00 57 1015.3
20260905112137 18 9.7 20.9 0.00 9.78 0.00 58 1015.3
20260905112037 18 9.7 20.9 0.00 9.78 0.00 58 1015.3
20260905111937 18 6.4 20.9 0.00 9.78 0.00 58 1015.1
20260905111837 18 6.4 16.1 0.00 9.78 0.00 58 1015.2
20260905111737 18 9.7 32.2 0.00 9.78 0.00 58 1015.2
20260905111637 18 12.9 20.9 0.00 9.78 0.00 57 1015.2
20260905111537 19 12.9 25.7 0.00 9.78 0.00 57 1015.1
20260905111437 19 12.9 25.7 0.00 9.78 0.00 56 1015.1
20260905111337 20 12.9 20.9 0.00 9.78 0.00 56 1015.2
20260905111237 20 6.4 16.1 0.00 9.78 0.00 55 1015.2
20260905111137 20 6.4 20.9 0.00 9.78 0.00 56 1015.1
20260905111037 20 9.7 25.7 0.00 9.78 0.00 55 1015.1
20260905110937 20 9.7 25.7 0.00 9.78 0.00 55 1015.1
20260905110837 20 9.7 20.9 0.00 9.78 0.00 55 1015.1
20260905110737 19 6.4 16.1 0.00 9.78 0.00 54 1015.1
20260905110637 20 9.7 25.7 0.00 9.78 0.00 53 1015.1
20260905110537 20 8.0 16.1 0.00 9.78 0.00 54 1015.1
20260905110437 20 6.4 16.1 0.00 9.78 0.00 56 1015.2
20260905110337 19 6.4 20.9 0.00 9.78 0.00 55 1015.1
20260905110237 19 9.7 20.9 0.00 9.78 0.00 56 1015.1
20260905110137 19 12.9 37.0 0.00 9.78 0.00 55 1015.2
20260905110037 19 11.3 25.7 0.00 9.78 0.00 55 1015.2
20260905105937 19 9.7 20.9 0.00 9.78 0.00 55 1015.1
20260905105837 20 12.9 25.7 0.00 9.78 0.00 58 1563.8
20260905105737 19 6.4 16.1 0.00 9.78 0.00 56 1015.2
20260905105637 19 9.7 20.9 0.00 9.78 0.00 56 1015.1
20260905105537 19 8.0 16.1 0.00 9.78 0.00 56 1015.1
20260905105437 19 9.7 25.7 0.00 9.78 0.00 55 1015.1
20260905105337 19 4.8 25.7 0.00 9.78 0.00 56 1015.1
20260905105237 18 9.7 37.0 0.00 9.78 0.00 56 1015.1
20260905105137 18 11.3 32.2 0.00 9.78 0.00 57 1015.1
20260905105037 19 12.9 32.2 0.00 9.78 0.00 57 1015.2
20260905104937 18 11.3 25.7 0.00 9.78 0.00 57 1015.1
20260905104837 18 9.7 25.7 0.00 9.78 0.00 58 1015.2
20260905104737 18 8.0 20.9 0.00 9.78 0.00 57 1015.2
20260905104637 19 8.0 16.1 0.00 9.78 0.00 59 1015.2
20260905104537 18 8.0 25.7 0.00 9.78 0.00 58 1015.2
20260905104437 18 11.3 20.9 0.00 9.78 0.00 59 1015.1
20260905104337 18 4.8 16.1 0.00 9.78 0.00 59 1015.2
20260905104237 18 14.5 25.7 0.00 9.78 0.00 59 1015.1
20260905104137 18 6.4 16.1 0.00 9.78 0.00 60 1015.3
20260905104037 18 4.8 9.7 0.00 9.78 0.00 59 1282.1
20260905103937 18 12.9 25.7 0.00 9.78 0.00 61 1015.2
20260905103837 18 4.8 16.1 0.00 9.78 0.00 62 1015.2
20260905103737 18 8.0 37.0 0.00 9.78 0.00 59 1015.1
20260905103637 18 12.9 25.7 0.00 9.78 0.00 60 1015.1
20260905103537 18 12.9 37.0 0.00 9.78 0.00 61 1015.2
20260905103437 18 14.5 25.7 0.00 9.78 0.00 61 1015.1
20260905103337 18 6.4 20.9 0.00 9.78 0.00 60 1015.1
20260905103237 18 12.9 25.7 0.00 9.78 0.00 60 1015.1
20260905103137 18 9.7 16.1 0.00 9.78 0.00 60 1015.0
20260905103037 18 12.9 37.0 0.00 9.78 0.00 58 1015.0
20260905102937 18 12.9 32.2 0.00 9.78 0.00 57 1015.1
20260905102837 18 9.7 20.9 0.00 9.78 0.00 57 1015.1
20260905102737 18 8.0 16.1 0.00 9.78 0.00 58 1015.1
20260905102637 18 16.1 48.3 0.00 9.78 0.00 58 1280.4
20260905102537 18 6.4 20.9 0.00 9.78 0.00 59 1014.9
20260905102437 18 11.3 25.7 0.00 9.78 0.00 59 1015.0
20260905102337 18 14.5 32.2 0.00 9.78 0.00 59 1015.0
20260905102237 18 12.9 25.7 0.00 9.78 0.00 60 1015.0
20260905102137 18 6.4 16.1 0.00 9.78 0.00 61 1282.2
20260905102037 18 14.5 25.7 0.00 9.78 0.00 61 1280.0
20260905101937 18 8.0 25.7 0.00 9.78 0.00 63 1015.0
20260905101837 18 4.8 9.7 0.00 9.78 0.00 64 1015.0
20260905101737 18 8.0 16.1 0.00 9.78 0.00 64 1015.0
20260905101637 18 3.2 9.7 0.00 9.78 0.00 66 1014.9
20260905101537 18 3.2 16.1 0.00 9.78 0.00 64 1014.9
20260905101437 18 8.0 20.9 0.00 9.78 0.00 64 1015.0
20260905101337 18 11.3 20.9 0.00 9.78 0.00 62 1014.9
20260905101237 18 6.4 25.7 0.00 9.78 0.00 62 1014.9
20260905101137 18 11.3 32.2 0.00 9.78 0.00 63 1014.8
20260905100837 18 11.3 20.9 0.00 9.78 0.00 64 1015.0
20260905100737 17 6.4 20.9 0.00 9.78 0.00 64 1014.8
20260905100637 17 9.7 25.7 0.00 9.78 0.00 67 1014.8
20260905100537 17 6.4 20.9 0.00 9.78 0.00 67 1014.8
20260905100436 17 6.4 16.1 0.00 9.78 0.00 67 1280.1
20260905100336 17 6.4 25.7 0.00 9.78 0.00 66 1014.8
20260905100237 17 9.7 16.1 0.00 9.78 0.00 66 1014.8
20260905100137 17 11.3 25.7 0.00 9.78 0.00 67 1014.7
20260905100037 17 11.3 20.9 0.00 9.78 0.00 67 1014.8
20260905095937 17 9.7 20.9 0.00 9.78 0.00 67 1014.7
20260905095837 17 9.7 20.9 0.00 9.78 0.00 66 1014.7
20260905095737 17 11.3 25.7 0.00 9.78 0.00 65 1014.7
20260905095637 18 8.0 20.9 0.00 9.78 0.00 65 1014.7
20260905095537 18 6.4 9.7 0.00 9.78 0.00 65 1014.7
20260905095437 18 4.8 20.9 0.00 9.78 0.00 65 1014.8
20260905095337 17 11.3 32.2 0.00 9.78 0.00 65 1014.7
20260905095237 17 8.0 16.1 0.00 9.78 0.00 67 1014.7
20260905095137 17 8.0 20.9 0.00 9.78 0.00 66 1014.7
20260905095037 17 11.3 20.9 0.00 9.78 0.00 67 1014.7
20260905094937 17 6.4 16.1 0.00 9.78 0.00 67 1014.8
20260905094837 17 9.7 25.7 0.00 9.78 0.00 67 1014.7
20260905094737 17 9.7 20.9 0.00 9.78 0.00 66 1014.7
20260905094637 17 9.7 16.1 0.00 9.78 0.00 66 1014.7
20260905094537 17 11.3 20.9 0.00 9.78 0.00 66 1014.7
20260905094437 17 12.9 25.7 0.00 9.78 0.00 66 1014.7
20260905094337 17 9.7 25.7 0.00 9.78 0.00 65 1014.8
20260905094237 17 9.7 25.7 0.00 9.78 0.00 65 1014.7
20260905094137 17 9.7 16.1 0.00 9.78 0.00 66 1014.7
20260905094037 17 8.0 20.9 0.00 9.78 0.00 66 1014.7
20260905093937 17 11.3 25.7 0.00 9.78 0.00 68 1014.7
20260905093837 17 9.7 16.1 0.00 9.78 0.00 67 1014.7
20260905093737 18 9.7 20.9 0.00 9.78 0.00 67 1014.6
20260905093637 18 4.8 25.7 0.00 9.78 0.00 66 1014.7
20260905093536 18 4.8 9.7 0.00 9.78 0.00 68 1280.0
20260905093437 17 6.4 16.1 0.00 9.78 0.00 68 1014.7
20260905093337 17 9.7 20.9 0.00 9.78 0.00 68 1014.6
20260905093237 17 8.0 16.1 0.00 9.78 0.00 69 1014.6
20260905093137 17 11.3 25.7 0.00 9.78 0.00 68 1014.7
20260905093037 16 9.7 20.9 0.00 9.78 0.00 68 1014.7
20260905092937 17 11.3 25.7 0.00 9.78 0.00 69 1014.7
20260905092836 16 9.7 25.7 0.00 9.78 0.00 69 1014.7
20260905092737 17 12.9 25.7 0.00 9.78 0.00 68 1014.7
20260905092637 17 12.9 25.7 0.00 9.78 0.00 68 1014.7
20260905092537 17 12.9 20.9 0.00 9.78 0.00 68 1014.7
20260905092437 17 9.7 20.9 0.00 9.78 0.00 70 1014.8
20260905092337 16 8.0 20.9 0.00 9.78 0.00 70 1014.8
20260905092237 16 12.9 25.7 0.00 9.78 0.00 70 1014.7
20260905092137 17 12.9 25.7 0.00 9.78 0.00 72 1014.8
20260905092037 17 9.7 25.7 0.00 9.78 0.00 72 1014.6
20260905091936 17 9.7 25.7 0.00 9.78 0.00 71 1014.8
20260905091837 17 11.3 20.9 0.00 9.78 0.00 71 1014.7
20260905091737 17 11.3 32.2 0.00 9.78 0.00 70 1014.7
20260905091636 17 9.7 20.9 0.00 9.78 0.00 71 1014.6
20260905091537 17 9.7 16.1 0.00 9.78 0.00 71 1014.7
20260905091437 16 6.4 16.1 0.00 9.78 0.00 71 1014.6
20260905091337 17 9.7 20.9 0.00 9.78 0.00 71 1014.6
20260905091237 17 6.4 20.9 0.00 9.78 0.00 71 1014.7
20260905091037 17 9.7 20.9 0.00 9.78 0.00 70 975.1
20260905090936 17 9.7 16.1 0.00 9.78 0.00 69 1279.6
20260905090836 17 9.7 16.1 0.00 9.78 0.00 69 1279.4
20260905090737 17 8.0 16.1 0.00 9.78 0.00 68 1014.6
20260905090637 17 4.8 9.7 0.00 9.78 0.00 68 1014.6
20260905090536 18 9.7 16.1 0.00 9.78 0.00 66 1013.4
20260905090337 18 11.3 20.9 0.00 9.78 0.00 67 1014.5
20260905090237 17 6.4 16.1 0.00 9.78 0.00 67 1014.5
20260905090137 17 9.7 41.8 0.00 9.78 0.00 66 1014.5
20260905090037 17 9.7 16.1 0.00 9.78 0.00 67 1014.5
20260905085937 17 6.4 25.7 0.00 9.78 0.00 67 1014.5
20260905085836 17 6.4 16.1 0.00 9.78 0.00 68 1014.5
20260905085737 17 12.9 20.9 0.00 9.78 0.00 67 1014.6
20260905085636 17 8.0 20.9 0.00 9.78 0.00 66 1014.5
20260905085537 18 8.0 20.9 0.00 9.78 0.00 67 1014.5
20260905085437 18 11.3 32.2 0.00 9.78 0.00 66 1014.5
20260905085336 18 6.4 20.9 0.00 9.78 0.00 67 1014.5
20260905085237 18 8.0 20.9 0.00 9.78 0.00 67 1014.5
20260905085136 17 8.0 25.7 0.00 9.78 0.00 66 1014.5
20260905085037 17 9.7 16.1 0.00 9.78 0.00 66 759.4
20260905084937 17 9.7 64.4 0.00 9.78 0.00 66 1014.6
20260905084837 17 11.3 20.9 0.00 9.78 0.00 67 1014.6
20260905084737 17 14.5 32.2 0.00 9.78 0.00 67 1014.5
20260905084637 17 11.3 20.9 0.00 9.78 0.00 67 1014.6
20260905084537 17 8.0 16.1 0.00 9.78 0.00 68 1014.6
20260905084437 17 8.0 16.1 0.00 9.78 0.00 67 1014.5
20260905084337 17 8.0 25.7 0.00 9.78 0.00 66 1281.1
20260905084236 17 9.7 25.7 0.00 9.78 0.00 68 1279.2
20260905084137 17 11.3 20.9 0.00 9.78 0.00 70 1014.6
20260905084036 17 4.8 9.7 0.00 9.78 0.00 69 1014.4
20260905083936 17 6.4 16.1 0.00 9.78 0.00 69 1014.4
20260905083836 17 9.7 25.7 0.00 9.78 0.00 68 1014.4
20260905083636 18 3.2 9.7 0.00 9.78 0.00 67 1279.1
20260905083537 18 6.4 16.1 0.00 9.78 0.00 68 1280.8
20260905083436 18 4.8 16.1 0.00 9.78 0.00 69 759.2
20260905083337 17 4.8 20.9 0.00 9.78 0.00 70 1014.2
20260905083236 18 11.3 20.9 0.00 9.78 0.00 70 1014.3
20260905083137 18 8.0 25.7 0.00 9.78 0.00 68 1014.3
20260905083037 18 9.7 160.9 0.00 9.78 0.00 68 1014.4
20260905082836 18 8.0 20.9 0.00 9.78 0.00 70 1279.1
20260905082736 18 8.0 16.1 0.00 9.78 0.00 70 1279.2
20260905082636 17 4.8 9.7 0.00 9.78 0.00 71 1279.1
20260905082536 17 8.0 20.9 0.00 9.78 0.00 70 1279.0
20260905082437 17 8.0 20.9 0.00 9.78 0.00 72 1014.2
20260905082337 17 3.2 9.7 0.00 9.78 0.00 73 1014.2
20260905082237 17 8.0 25.7 0.00 9.78 0.00 72 1014.2
20260905082136 17 9.7 20.9 0.00 9.78 0.00 72 840.1
20260905082037 17 9.7 16.1 0.00 9.78 0.00 70 1254.7
20260905081937 17 9.7 25.7 0.00 9.78 0.00 71 1014.2
20260905081836 17 6.4 16.1 0.00 9.78 0.00 71 1014.2
20260905081737 18 6.4 16.1 0.00 9.78 0.00 71 1014.2
20260905081636 18 6.4 9.7 0.00 9.78 0.00 71 1014.2
20260905081536 18 6.4 16.1 0.00 9.78 0.00 72 1014.2
20260905081437 17 4.8 16.1 0.00 9.78 0.00 72 1014.2
20260905081337 17 6.4 16.1 0.00 9.78 0.00 73 1014.3
20260905081237 17 6.4 16.1 0.00 9.78 0.00 73 1014.3
20260905081136 17 8.0 37.0 0.00 9.78 0.00 73 759.3
20260905081037 17 6.4 20.9 0.00 9.78 0.00 73 1014.2
20260905080937 17 8.0 25.7 0.00 9.78 0.00 74 1014.4
20260905080837 17 11.3 20.9 0.00 9.78 0.00 73 1014.4
20260905080736 17 8.0 16.1 0.00 9.78 0.00 74 1014.4
20260905080637 16 9.7 20.9 0.00 9.78 0.00 73 1014.4
20260905080537 16 11.3 20.9 0.00 9.78 0.00 74 1014.4
20260905080437 16 11.3 20.9 0.00 9.78 0.00 76 1014.5
20260905080337 16 8.0 25.7 0.00 9.78 0.00 76 1014.4
20260905080237 16 11.3 25.7 0.00 9.78 0.00 75 1014.3
20260905080137 16 12.9 20.9 0.00 9.78 0.00 75 1014.4
20260905080037 17 11.3 25.7 0.00 9.78 0.00 75 1014.3
20260905075936 17 9.7 25.7 0.00 9.78 0.00 75 1014.4
20260905075836 17 9.7 20.9 0.00 9.78 0.00 75 1014.3
20260905075736 17 4.8 16.1 0.00 9.78 0.00 75 1014.2
20260905075636 17 3.2 9.7 0.00 9.78 0.00 75 1014.0
20260905075536 17 6.4 16.1 0.00 9.78 0.00 75 1014.2
20260905075437 17 11.3 37.0 0.00 9.78 0.00 74 1014.0
20260905075337 17 11.3 20.9 0.00 9.78 0.00 75 1014.2
20260905075237 17 8.0 16.1 0.00 9.78 0.00 75 1014.2
20260905075137 17 4.8 9.7 0.00 9.78 0.00 75 1014.2
20260905075037 17 6.4 9.7 0.00 9.78 0.00 74 1014.0
20260905074937 17 9.7 32.2 0.00 9.78 0.00 73 1014.0
20260905074836 17 12.9 25.7 0.00 9.78 0.00 74 1014.0
20260905074736 17 6.4 16.1 0.00 9.78 0.00 75 1014.0
20260905074636 17 6.4 16.1 0.00 9.78 0.00 74 1014.0
20260905074536 17 8.0 37.0 0.00 9.78 0.00 73 1014.0
20260905074436 17 4.8 20.9 0.00 9.78 0.00 73 1014.0
20260905074337 17 6.4 16.1 0.00 9.78 0.00 76 1014.0
20260905074236 16 6.4 20.9 0.00 9.78 0.00 75 1014.2
20260905074137 17 9.7 20.9 0.00 9.78 0.00 75 1014.0
20260905074036 17 6.4 9.7 0.00 9.78 0.00 76 1014.0
20260905073937 17 6.4 16.1 0.00 9.78 0.00 75 1013.9
20260905073836 17 6.4 16.1 0.00 9.78 0.00 75 1013.9
20260905073736 17 6.4 16.1 0.00 9.78 0.00 75 1013.9
20260905073636 17 4.8 9.7 0.00 9.78 0.00 75 1013.9
20260905073536 17 4.8 9.7 0.00 9.78 0.00 76 1013.9
20260905073436 17 8.0 32.2 0.00 9.78 0.00 75 1013.8
20260905073336 17 6.4 16.1 0.00 9.78 0.00 76 1279.1
20260905073236 16 6.4 16.1 0.00 9.78 0.00 75 1013.8
20260905073136 17 6.4 16.1 0.00 9.78 0.00 76 1013.8
20260905073036 17 9.7 20.9 0.00 9.78 0.00 77 1013.8
20260905072936 16 4.8 16.1 0.00 9.78 0.00 77 1013.8
20260905072837 16 6.4 16.1 0.00 9.78 0.00 77 1013.8
20260905072736 16 8.0 25.7 0.00 9.78 0.00 77 1013.8
20260905072636 16 12.9 25.7 0.00 9.78 0.00 77 1013.8
20260905072536 16 8.0 20.9 0.00 9.78 0.00 77 1013.8
20260905072436 17 6.4 20.9 0.00 9.78 0.00 77 1013.8
20260905072336 16 4.8 9.7 0.00 9.78 0.00 77 1013.8
20260905072236 16 4.8 9.7 0.00 9.78 0.00 77 1013.8
20260905072136 16 6.4 20.9 0.00 9.78 0.00 77 1013.8
20260905072036 16 6.4 20.9 0.00 9.78 0.00 78 1013.9
20260905071936 16 11.3 25.7 0.00 9.78 0.00 78 1013.9
20260905071836 16 8.0 25.7 0.00 9.78 0.00 79 1013.9
20260905071736 16 8.0 20.9 0.00 9.78 0.00 79 1013.8
20260905071636 16 9.7 32.2 0.00 9.78 0.00 78 1013.8
20260905071536 16 9.7 20.9 0.00 9.78 0.00 79 1013.8
20260905071436 16 8.0 16.1 0.00 9.78 0.00 79 1013.8
20260905071336 16 6.4 20.9 0.00 9.78 0.00 79 1013.8
20260905071236 16 4.8 9.7 0.00 9.78 0.00 80 1013.8
20260905071136 16 4.8 20.9 0.00 9.78 0.00 80 1013.8
20260905071036 16 8.0 16.1 0.00 9.78 0.00 81 1013.8
20260905070936 16 8.0 16.1 0.00 9.78 0.00 81 1013.8
20260905070836 16 8.0 16.1 0.00 9.78 0.00 80 1013.7
20260905070737 16 8.0 16.1 0.00 9.78 0.00 80 1013.8
20260905070637 16 8.0 20.9 0.00 9.78 0.00 80 1013.7
20260905070536 16 9.7 25.7 0.00 9.78 0.00 81 1278.7
20260905070437 16 8.0 20.9 0.00 9.78 0.00 80 1013.7
20260905070336 16 9.7 20.9 0.00 9.78 0.00 79 1013.7
20260905070236 16 8.0 16.1 0.00 9.78 0.00 79 1013.6
20260905070136 16 4.8 16.1 0.00 9.78 0.00 80 1013.6
20260905070036 16 3.2 4.8 0.00 9.78 0.00 80 1013.6
20260905065937 16 3.2 16.1 0.00 9.78 0.00 80 1013.6
20260905065837 16 9.7 32.2 0.00 9.78 0.00 80 1013.6
20260905065736 16 6.4 16.1 0.00 9.78 0.00 80 1013.6
20260905065637 16 11.3 20.9 0.00 9.78 0.00 80 1013.5
20260905065537 16 9.7 20.9 0.00 9.78 0.00 81 1013.5
20260905065437 16 8.0 16.1 0.00 9.78 0.00 82 1013.6
20260905065336 16 3.2 16.1 0.00 9.78 0.00 81 1013.5
20260905065236 16 4.8 16.1 0.00 9.78 0.00 81 1013.5
20260905065136 16 4.8 9.7 0.00 9.78 0.00 81 1013.6
20260905065036 16 4.8 9.7 0.00 9.78 0.00 81 1013.5
20260905064936 15 4.8 9.7 0.00 9.78 0.00 82 1013.5
20260905064836 15 4.8 9.7 0.00 9.78 0.00 82 1013.4
20260905064736 15 6.4 16.1 0.00 9.78 0.00 81 1280.1
20260905064636 15 11.3 16.1 0.00 9.78 0.00 81 1013.4
20260905064536 15 6.4 16.1 0.00 9.78 0.00 81 1013.4
20260905064436 16 8.0 16.1 0.00 9.78 0.00 81 1013.4
20260905064336 16 4.8 9.7 0.00 9.78 0.00 81 1013.4
20260905064236 15 3.2 9.7 0.00 9.78 0.00 80 1013.4
20260905064136 16 8.0 25.7 0.00 9.78 0.00 80 1013.3
20260905064036 16 8.0 20.9 0.00 9.78 0.00 79 1013.3
20260905063936 16 8.0 16.1 0.00 9.78 0.00 78 1013.3
20260905063836 16 9.7 25.7 0.00 9.78 0.00 78 1013.2
20260905063736 16 8.0 20.9 0.00 9.78 0.00 78 1013.3
20260905063636 16 8.0 20.9 0.00 9.78 0.00 78 1013.3
20260905063536 16 11.3 20.9 0.00 9.78 0.00 78 1013.2
20260905063436 16 6.4 16.1 0.00 9.78 0.00 80 1013.3
20260905063336 16 4.8 16.1 0.00 9.78 0.00 81 1013.2
20260905063236 16 3.2 16.1 0.00 9.78 0.00 81 1013.3
20260905063136 15 3.2 9.7 0.00 9.78 0.00 80 1013.3
20260905063036 16 4.8 16.1 0.00 9.78 0.00 81 1013.3
20260905062936 16 6.4 16.1 0.00 9.78 0.00 80 1013.2
20260905062836 16 4.8 9.7 0.00 9.78 0.00 80 1013.2
20260905062736 16 9.7 25.7 0.00 9.78 0.00 80 1013.3
20260905062636 16 8.0 16.1 0.00 9.78 0.00 80 1013.2
20260905062536 16 3.2 9.7 0.00 9.78 0.00 80 1013.2
20260905062436 15 9.7 20.9 0.00 9.78 0.00 81 1013.2
20260905062336 15 8.0 16.1 0.00 9.78 0.00 81 1013.2
20260905062236 15 4.8 16.1 0.00 9.78 0.00 81 1013.2
20260905062136 15 6.4 20.9 0.00 9.78 0.00 81 1013.1
20260905062036 16 11.3 20.9 0.00 9.78 0.00 81 1013.1
20260905061936 16 4.8 16.1 0.00 9.78 0.00 81 1013.2
20260905061836 16 6.4 16.1 0.00 9.78 0.00 81 1013.1
20260905061736 16 6.4 16.1 0.00 9.78 0.00 81 1013.2
20260905061636 16 4.8 16.1 0.00 9.78 0.00 80 1013.1
20260905061536 16 6.4 20.9 0.00 9.78 0.00 80 1013.1
20260905061436 15 6.4 25.7 0.00 9.78 0.00 81 1013.2
20260905061336 15 8.0 37.0 0.00 9.78 0.00 81 1013.1
20260905061236 15 11.3 20.9 0.00 9.78 0.00 81 1013.1
20260905061136 16 8.0 20.9 0.00 9.78 0.00 82 1013.1
20260905061036 16 8.0 16.1 0.00 9.78 0.00 81 1013.0
20260905060936 16 6.4 16.1 0.00 9.78 0.00 82 1013.0
20260905060836 16 6.4 16.1 0.00 9.78 0.00 82 1013.1
20260905060736 16 6.4 16.1 0.00 9.78 0.00 81 1013.0
20260905060636 16 4.8 16.1 0.00 9.78 0.00 81 1013.0
20260905060536 16 6.4 16.1 0.00 9.78 0.00 81 1013.0
20260905060436 16 9.7 20.9 0.00 9.78 0.00 81 1013.0
20260905060336 16 6.4 16.1 0.00 9.78 0.00 81 1013.0
20260905060236 16 9.7 37.0 0.00 9.78 0.00 83 1013.0
20260905060136 16 9.7 20.9 0.00 9.78 0.00 83 1013.0
20260905060036 15 4.8 9.7 0.00 9.78 0.00 83 1013.0
20260905055936 15 8.0 20.9 0.00 9.78 0.00 84 1012.9
20260905055836 15 11.3 20.9 0.00 9.78 0.00 84 1012.9
20260905055736 15 9.7 20.9 0.00 9.78 0.00 84 1012.9
20260905055636 15 9.7 20.9 0.00 9.78 0.00 84 1012.9
20260905055536 16 6.4 20.9 0.00 9.78 0.00 84 1012.9
20260905055436 16 6.4 16.1 0.00 9.78 0.00 84 1012.9
20260905055336 16 6.4 20.9 0.00 9.78 0.00 84 1012.9
20260905055236 16 8.0 16.1 0.00 9.78 0.00 84 1012.9
20260905055136 15 4.8 16.1 0.00 9.78 0.00 84 1012.9
20260905055036 15 4.8 9.7 0.00 9.78 0.00 84 1012.9
20260905054936 15 8.0 20.9 0.00 9.78 0.00 85 1012.9
20260905054836 15 6.4 16.1 0.00 9.78 0.00 84 1012.8
20260905054736 15 8.0 16.1 0.00 9.78 0.00 84 1012.9
20260905054636 15 6.4 9.7 0.00 9.78 0.00 84 1012.8
20260905054536 15 6.4 16.1 0.00 9.78 0.00 85 1012.9
20260905054436 15 8.0 16.1 0.00 9.78 0.00 85 1012.8
20260905054336 15 6.4 20.9 0.00 9.78 0.00 85 1012.8
20260905054236 15 3.2 9.7 0.00 9.78 0.00 86 1012.7
20260905054136 15 6.4 140.0 0.00 9.78 0.00 86 1012.7
20260905054036 15 6.4 20.9 0.00 9.78 0.00 86 1012.8
20260905053936 15 6.4 20.9 0.00 9.78 0.00 86 1012.7
20260905053836 15 6.4 20.9 0.00 9.78 0.00 86 1012.8
20260905053736 15 3.2 16.1 0.00 9.78 0.00 86 1012.8
20260905053636 15 4.8 9.7 0.00 9.78 0.00 86 1012.8
20260905053536 15 4.8 9.7 0.00 9.78 0.00 86 1012.8
20260905053436 15 4.8 16.1 0.00 9.78 0.00 86 1012.8
20260905053336 15 6.4 9.7 0.00 9.78 0.00 86 1012.7
20260905053236 15 6.4 16.1 0.00 9.78 0.00 85 1012.7
20260905053136 15 8.0 20.9 0.00 9.78 0.00 85 1012.6
20260905053036 15 4.8 9.7 0.00 9.78 0.00 85 1012.7
20260905052936 15 9.7 20.9 0.00 9.78 0.00 84 1012.7
20260905052836 15 4.8 9.7 0.00 9.78 0.00 85 1012.7
20260905052736 15 4.8 16.1 0.00 9.78 0.00 85 1012.7
20260905052636 15 6.4 16.1 0.00 9.78 0.00 84 1012.6
20260905052537 15 9.7 16.1 0.00 9.78 0.00 85 1012.6
20260905052436 15 8.0 16.1 0.00 9.78 0.00 86 1012.6
20260905052336 15 4.8 9.7 0.00 9.78 0.00 85 1012.6
20260905052236 15 3.2 16.1 0.00 9.78 0.00 85 1012.6
20260905052136 15 8.0 16.1 0.00 9.78 0.00 85 1012.7
20260905052036 15 6.4 9.7 0.00 9.78 0.00 85 1012.7
20260905051936 15 6.4 16.1 0.00 9.78 0.00 85 1012.6
20260905051836 15 6.4 16.1 0.00 9.78 0.00 85 1012.5
20260905051736 15 8.0 16.1 0.00 9.78 0.00 85 1012.5
20260905051636 15 4.8 16.1 0.00 9.78 0.00 85 1012.5
20260905051536 15 6.4 20.9 0.00 9.78 0.00 85 1012.6
20260905051436 15 8.0 16.1 0.00 9.78 0.00 85 1012.5
20260905051336 15 8.0 16.1 0.00 9.78 0.00 85 1012.5
20260905051236 15 6.4 9.7 0.00 9.78 0.00 85 1012.6
20260905051136 15 8.0 16.1 0.00 9.78 0.00 85 1012.5
20260905051036 15 4.8 16.1 0.00 9.78 0.00 85 1012.5
20260905050936 15 8.0 25.7 0.00 9.78 0.00 84 1012.4
20260905050836 15 9.7 20.9 0.00 9.78 0.00 85 1012.5
20260905050736 15 8.0 20.9 0.00 9.78 0.00 85 1012.5
20260905050636 15 6.4 16.1 0.00 9.78 0.00 85 1012.5
20260905050536 15 4.8 9.7 0.00 9.78 0.00 85 1012.5
20260905050436 15 4.8 25.7 0.00 9.78 0.00 85 1012.4
20260905050336 15 6.4 16.1 0.00 9.78 0.00 86 1012.4
20260905050236 15 4.8 9.7 0.00 9.78 0.00 86 1012.4
20260905050136 15 3.2 9.7 0.00 9.78 0.00 85 1012.4
20260905050037 15 6.4 16.1 0.00 9.78 0.00 85 1012.3
20260905045838 15 3.2 16.1 0.00 9.78 0.00 86 1012.4
20260905045736 15 6.4 9.7 0.00 9.78 0.00 85 1012.4
20260905045636 15 8.0 25.7 0.00 9.78 0.00 85 1012.3
20260905045536 15 8.0 25.7 0.00 9.78 0.00 85 1012.4
20260905045436 15 8.0 20.9 0.00 9.78 0.00 86 1012.4
20260905045336 15 8.0 20.9 0.00 9.78 0.00 86 1012.3
20260905045236 15 6.4 16.1 0.00 9.78 0.00 86 1012.3
20260905045136 15 6.4 32.2 0.00 9.78 0.00 86 1012.3
20260905045036 15 6.4 20.9 0.00 9.78 0.00 86 1012.3
20260905044936 15 4.8 16.1 0.00 9.78 0.00 86 1012.4
20260905044836 15 6.4 16.1 0.00 9.78 0.00 86 1012.3
20260905044736 15 6.4 16.1 0.00 9.78 0.00 86 1012.3
20260905044636 15 4.8 9.7 0.00 9.78 0.00 86 1012.3
20260905044536 15 6.4 25.7 0.00 9.78 0.00 86 1012.2
20260905044436 15 8.0 20.9 0.00 9.78 0.00 86 1012.3
20260905044336 15 8.0 16.1 0.00 9.78 0.00 86 1012.2
20260905044236 15 4.8 16.1 0.00 9.78 0.00 86 1012.1
20260905044136 15 1.6 4.8 0.00 9.78 0.00 86 1012.2
20260905044036 15 3.2 9.7 0.00 9.78 0.00 86 1012.1
20260905043936 15 6.4 20.9 0.00 9.78 0.00 86 1012.2
20260905043836 15 8.0 16.1 0.00 9.78 0.00 86 1012.1
20260905043736 15 4.8 20.9 0.00 9.78 0.00 86 1012.1
20260905043636 15 8.0 20.9 0.00 9.78 0.00 87 1012.1
20260905043536 15 4.8 16.1 0.00 9.78 0.00 87 1012.0
20260905043436 15 4.8 25.7 0.00 9.78 0.00 87 1012.1
20260905043336 15 8.0 16.1 0.00 9.78 0.00 87 1012.1
20260905043236 15 8.0 16.1 0.00 9.78 0.00 87 1012.1
20260905043136 15 4.8 9.7 0.00 9.78 0.00 87 1012.1
20260905043036 15 11.3 300.9 0.00 9.78 0.00 86 1012.0
20260905042936 15 8.0 20.9 0.00 9.78 0.00 87 1012.0
20260905042836 15 8.0 20.9 0.00 9.78 0.00 87 1012.0
20260905042736 15 9.7 25.7 0.00 9.78 0.00 87 1012.0
20260905042636 15 6.4 16.1 0.00 9.78 0.00 87 1011.9
20260905042536 15 3.2 9.7 0.00 9.78 0.00 87 1012.0
20260905042436 15 3.2 9.7 0.00 9.78 0.00 87 1011.9
20260905042336 15 8.0 20.9 0.00 9.78 0.00 87 1012.0
20260905042236 15 8.0 16.1 0.00 9.78 0.00 87 1011.9
20260905042136 15 3.2 9.7 0.00 9.78 0.00 87 1011.9
20260905042036 15 3.2 9.7 0.00 9.78 0.00 87 1011.9
20260905041936 15 4.8 9.7 0.00 9.78 0.00 87 1012.0
20260905041836 15 6.4 16.1 0.00 9.78 0.00 87 1011.9
20260905041736 15 6.4 9.7 0.00 9.78 0.00 87 1012.0
20260905041636 15 3.2 16.1 0.00 9.78 0.00 87 1011.9
20260905041536 15 6.4 16.1 0.00 9.78 0.00 87 1011.9
20260905041436 15 6.4 20.9 0.00 9.78 0.00 87 1011.8
20260905041336 15 6.4 20.9 0.00 9.78 0.00 88 1011.8
20260905041236 15 3.2 16.1 0.00 9.78 0.00 88 1011.9
20260905041136 15 3.2 9.7 0.00 9.78 0.00 87 1011.8
20260905041036 15 4.8 16.1 0.00 9.78 0.00 87 1011.9
20260905040936 15 4.8 9.7 0.00 9.78 0.00 87 1011.9
20260905040836 15 8.0 20.9 0.00 9.78 0.00 87 1011.9
20260905040736 15 8.0 16.1 0.00 9.78 0.00 87 1011.8
20260905040636 15 11.3 20.9 0.00 9.78 0.00 88 1011.7
20260905040536 15 6.4 25.7 0.00 9.78 0.00 88 1011.8
20260905040436 15 4.8 9.7 0.00 9.78 0.00 87 1011.8
20260905040336 15 3.2 16.1 0.00 9.78 0.00 87 1011.8
20260905040236 15 6.4 9.7 0.00 9.78 0.00 87 1011.8
20260905040136 15 6.4 25.7 0.00 9.78 0.00 87 1011.8
20260905040036 15 8.0 25.7 0.00 9.78 0.00 87 1011.7
20260905035936 15 8.0 16.1 0.00 9.78 0.00 87 1011.7
20260905035836 15 8.0 16.1 0.00 9.78 0.00 87 1011.7
20260905035736 15 4.8 16.1 0.00 9.78 0.00 87 1011.7
20260905035636 15 6.4 16.1 0.00 9.78 0.00 87 1011.7
20260905035536 15 9.7 16.1 0.00 9.78 0.00 87 1011.7
20260905035436 15 9.7 20.9 0.00 9.78 0.00 88 1011.7
20260905035336 15 4.8 9.7 0.00 9.78 0.00 87 1011.7
20260905035236 15 4.8 20.9 0.00 9.78 0.00 87 1011.7
20260905035136 15 6.4 16.1 0.00 9.78 0.00 87 1011.7
20260905035036 15 4.8 16.1 0.00 9.78 0.00 87 1011.6
20260905034936 15 6.4 16.1 0.00 9.78 0.00 87 1011.5
20260905034836 15 6.4 9.7 0.00 9.78 0.00 88 1011.5
20260905034736 15 3.2 9.7 0.00 9.78 0.00 87 1011.4
20260905034636 15 6.4 16.1 0.00 9.78 0.00 87 1011.4
20260905034536 15 8.0 25.7 0.00 9.78 0.00 87 1011.3
20260905034436 15 8.0 16.1 0.00 9.78 0.00 87 1011.4
20260905034336 15 6.4 20.9 0.00 9.78 0.00 87 1011.4
20260905034236 15 4.8 9.7 0.00 9.78 0.00 87 1011.3
20260905034136 15 3.2 9.7 0.00 9.78 0.00 87 1011.3
20260905034036 15 3.2 9.7 0.00 9.78 0.00 87 1011.4
20260905033936 15 6.4 25.7 0.00 9.78 0.00 87 1011.3
20260905033836 15 6.4 16.1 0.00 9.78 0.00 87 1011.4
20260905033736 15 8.0 32.2 0.00 9.78 0.00 87 1011.4
20260905033636 15 4.8 9.7 0.00 9.78 0.00 87 1011.4
20260905033536 15 4.8 16.1 0.00 9.78 0.00 87 1011.3
20260905033436 15 4.8 20.9 0.00 9.78 0.00 87 1011.3
20260905033336 15 6.4 16.1 0.00 9.78 0.00 87 1011.3
20260905033236 15 6.4 20.9 0.00 9.78 0.00 87 1011.4
20260905033136 15 6.4 20.9 0.00 9.78 0.00 86 1011.3
20260905033036 15 8.0 20.9 0.00 9.78 0.00 87 1011.3
20260905032936 15 4.8 16.1 0.00 9.78 0.00 88 1011.3
20260905032836 15 3.2 9.7 0.00 9.78 0.00 88 1011.2
20260905032736 15 3.2 9.7 0.00 9.78 0.00 88 1011.3
20260905032636 15 3.2 20.9 0.00 9.78 0.00 87 1011.3
20260905032536 15 4.8 9.7 0.00 9.78 0.00 87 1011.3
20260905032436 15 6.4 16.1 0.00 9.78 0.00 87 1011.3
20260905032336 15 6.4 9.7 0.00 9.78 0.00 87 1011.3
20260905032236 15 6.4 16.1 0.00 9.78 0.00 87 1011.3
20260905032136 15 6.4 16.1 0.00 9.78 0.00 88 1011.2
20260905032036 15 6.4 9.7 0.00 9.78 0.00 88 1011.2
20260905031936 15 4.8 16.1 0.00 9.78 0.00 88 1011.2
20260905031836 15 3.2 9.7 0.00 9.78 0.00 88 1011.2
20260905031736 15 6.4 16.1 0.00 9.78 0.00 89 1011.1
20260905031636 15 3.2 9.7 0.00 9.78 0.00 89 1011.1
20260905031536 15 1.6 9.7 0.00 9.78 0.00 88 1011.0
20260905031436 15 3.2 9.7 0.00 9.78 0.00 88 1011.0
20260905031336 15 6.4 16.1 0.00 9.78 0.00 88 1011.0
20260905031236 15 8.0 20.9 0.00 9.78 0.00 88 1011.0
20260905031136 15 8.0 16.1 0.00 9.78 0.00 88 1011.0
20260905031036 15 8.0 16.1 0.00 9.78 0.00 88 1011.0
20260905030936 15 8.0 16.1 0.00 9.78 0.00 88 1011.0
20260905030836 15 4.8 16.1 0.00 9.78 0.00 88 1011.0
20260905030536 15 6.4 16.1 0.00 9.78 0.00 87 1010.8
20260905030436 15 6.4 20.9 0.00 9.78 0.00 87 1010.9
20260905030336 15 8.0 16.1 0.00 9.78 0.00 86 1010.8
20260905030236 15 11.3 20.9 0.00 9.78 0.00 87 1010.9
20260905030136 15 9.7 20.9 0.00 9.78 0.00 87 1010.9
20260905030036 15 9.7 20.9 0.00 9.78 0.00 88 1010.9
20260905025936 15 9.7 16.1 0.00 9.78 0.00 88 1010.8
20260905025836 15 9.7 32.2 0.00 9.78 0.00 89 1010.7
20260905025736 15 6.4 20.9 0.00 9.78 0.00 89 1010.8
20260905025636 15 6.4 9.7 0.00 9.78 0.00 89 1010.8
20260905025536 15 9.7 20.9 0.00 9.78 0.00 89 1010.7
20260905025236 15 9.7 16.1 0.00 9.78 0.00 88 1010.8
20260905025136 15 9.7 32.2 0.00 9.78 0.00 88 1010.6
20260905024936 15 8.0 16.1 0.00 9.78 0.00 90 1273.7
20260905024836 15 6.4 16.1 0.00 9.78 0.00 90 1010.7
20260905024736 15 6.4 16.1 0.00 9.78 0.00 90 1010.6
20260905024636 15 6.4 16.1 0.00 9.78 0.00 90 1010.6
20260905024536 15 6.4 20.9 0.00 9.78 0.00 90 1010.4
20260905024436 15 11.3 20.9 0.00 9.78 0.00 90 1010.6
20260905024336 15 8.0 16.1 0.00 9.78 0.00 90 1010.4
20260905024236 15 4.8 16.1 0.00 9.78 0.00 90 1275.1
20260905024136 15 6.4 16.1 0.00 9.78 0.00 90 1010.4
20260905024036 15 4.8 9.7 0.00 9.78 0.00 90 1275.2
20260905023936 15 4.8 16.1 0.00 9.78 0.00 90 1010.4
20260905023836 15 4.8 16.1 0.00 9.78 0.00 90 1010.3
20260905023736 15 4.8 20.9 0.00 9.78 0.00 90 1010.3
20260905023636 15 8.0 20.9 0.00 9.78 0.00 90 1010.3
20260905023536 15 3.2 20.9 0.00 9.78 0.00 90 1010.2
20260905023436 15 9.7 16.1 0.00 9.78 0.00 90 1273.3
20260905023336 15 20.9 894.8 0.00 9.78 0.00 90 1010.2
20260905023236 15 4.8 16.1 0.00 9.78 0.00 90 1010.3
20260905023136 15 4.8 16.1 0.00 9.78 0.00 90 1010.2
20260905023036 15 4.8 16.1 0.00 9.78 0.00 90 1010.3
20260905022936 15 4.8 16.1 0.00 9.78 0.00 90 1010.3
20260905022836 15 4.8 16.1 0.00 9.78 0.00 90 1010.4
20260905022736 15 6.4 9.7 0.00 9.78 0.00 90 1010.4
20260905022536 15 4.8 16.1 0.00 9.78 0.00 90 1010.6
20260905022436 15 4.8 16.1 0.00 9.78 0.00 90 1010.4
20260905022336 15 6.4 20.9 0.00 9.78 0.00 90 1010.6
20260905022236 15 6.4 16.1 0.00 9.78 0.00 91 1010.6
20260905021936 15 3.2 9.7 0.00 9.78 0.00 91 1010.3
20260905021836 15 3.2 9.7 0.00 9.78 0.00 91 1010.2
20260905021736 15 4.8 9.7 0.00 9.78 0.00 90 1010.2
20260905021636 15 6.4 16.1 0.00 9.78 0.00 91 1010.3
20260905021536 15 8.0 16.1 0.00 9.78 0.00 91 1273.4
20260905021436 15 6.4 16.1 0.00 9.78 0.00 91 1010.3
20260905021336 15 6.4 9.7 0.00 9.78 0.00 91 1010.2
20260905021236 15 8.0 16.1 0.00 9.78 0.00 90 1010.1
20260905021136 15 8.0 25.7 0.00 9.78 0.00 90 1010.2
20260905021036 15 9.7 20.9 0.00 9.78 0.00 90 1010.2
20260905020936 15 3.2 9.7 0.00 9.78 0.00 90 1010.1
20260905020836 15 9.7 25.7 0.00 9.78 0.00 90 1010.2
20260905020736 15 6.4 16.1 0.00 9.78 0.00 90 1010.2
20260905020636 15 11.3 20.9 0.00 9.78 0.00 91 1010.3
20260905020536 15 4.8 16.1 0.00 9.78 0.00 91 1010.3
20260905020436 15 4.8 16.1 0.00 9.78 0.00 91 1010.2
20260905020336 15 4.8 25.7 0.00 9.78 0.00 91 1010.1
20260905020236 15 8.0 20.9 0.00 9.78 0.00 91 1010.1
20260905020136 15 6.4 16.1 0.00 9.78 0.00 92 1010.2
20260905020036 15 9.7 20.9 0.00 9.78 0.00 92 1010.2
20260905015936 15 4.8 16.1 0.00 9.78 0.00 92 1010.3
20260905015836 15 3.2 16.1 0.00 9.78 0.00 92 1010.2
20260905015736 15 6.4 16.1 0.00 9.78 0.00 91 1010.3
20260905015636 15 4.8 20.9 0.00 9.78 0.00 92 1010.4
20260905015536 15 6.4 9.7 0.00 9.78 0.00 92 1010.3
20260905015436 15 6.4 9.7 0.00 9.78 0.00 92 1010.4
20260905015336 15 6.4 16.1 0.00 9.78 0.00 92 1010.3
20260905015236 15 6.4 25.7 0.00 9.78 0.00 92 1010.3
20260905015136 15 6.4 20.9 0.00 9.78 0.00 92 1010.3
20260905015036 15 6.4 9.7 0.00 9.78 0.00 92 1273.2
20260905014936 15 8.0 20.9 0.00 9.78 0.00 91 1010.3
20260905014836 15 9.7 20.9 0.00 9.78 0.00 92 1010.2
20260905014736 15 6.4 20.9 0.00 9.78 0.00 92 1010.0
20260905014636 15 6.4 16.1 0.00 9.78 0.00 92 1010.1
20260905014536 15 4.8 16.1 0.00 9.78 0.00 92 1010.1
20260905014436 15 4.8 16.1 0.00 9.78 0.00 91 1010.0
20260905014336 15 8.0 20.9 0.00 9.78 0.00 92 1010.0
20260905014236 15 3.2 16.1 0.00 9.78 0.00 92 1010.1
20260905014136 15 6.4 9.7 0.00 9.78 0.00 91 1010.1
20260905014036 15 6.4 16.1 0.00 9.78 0.00 91 1010.1
20260905013936 15 4.8 16.1 0.00 9.78 0.00 91 1010.1
20260905013836 15 9.7 20.9 0.00 9.78 0.00 92 1010.1
20260905013736 15 8.0 20.9 0.00 9.78 0.00 92 1010.2
20260905013636 15 6.4 16.1 0.00 9.78 0.00 92 1010.1
20260905013536 15 6.4 9.7 0.00 9.78 0.00 92 1010.1
20260905013436 15 6.4 16.1 0.00 9.78 0.00 92 1010.0
20260905013336 15 6.4 25.7 0.00 9.78 0.00 92 1009.9
20260905013236 15 4.8 9.7 0.00 9.78 0.00 92 1010.0
20260905013136 15 3.2 4.8 0.00 9.78 0.00 92 1010.0
20260905013036 15 3.2 9.7 0.00 9.78 0.00 92 1009.8
20260905012936 15 3.2 9.7 0.00 9.78 0.00 92 1009.8
20260905012836 15 6.4 20.9 0.00 9.78 0.00 92 1274.4
20260905012736 15 4.8 16.1 0.00 9.78 0.00 92 1009.8
20260905012636 15 3.2 20.9 0.00 9.78 0.00 92 1009.8
20260905012536 15 4.8 16.1 0.00 9.78 0.00 92 1009.8
20260905012436 15 4.8 16.1 0.00 9.78 0.00 92 1009.8
20260905012336 15 3.2 9.7 0.00 9.78 0.00 92 1009.9
20260905012236 15 4.8 16.1 0.00 9.78 0.00 92 1010.0
20260905012136 15 3.2 16.1 0.00 9.78 0.00 92 1010.0
20260905012036 15 4.8 16.1 0.00 9.78 0.00 92 1010.0
20260905011936 15 4.8 9.7 0.00 9.78 0.00 92 1009.9
20260905011836 15 9.7 172.2 0.00 9.78 0.00 92 1009.8
20260905011736 15 4.8 16.1 0.00 9.78 0.00 92 1009.9
20260905011636 15 4.8 16.1 0.00 9.78 0.00 92 1010.0
20260905011536 15 4.8 16.1 0.00 9.78 0.00 92 1010.0
20260905011436 15 4.8 16.1 0.00 9.78 0.00 92 1010.0
20260905011336 15 4.8 9.7 0.00 9.78 0.00 92 1010.0
20260905011236 15 4.8 9.7 0.00 9.78 0.00 92 1009.9
20260905011136 15 6.4 20.9 0.00 9.78 0.00 92 1009.7
20260905011036 15 4.8 16.1 0.00 9.78 0.00 92 1009.7
20260905010936 15 6.4 16.1 0.00 9.78 0.00 92 1009.7
20260905010836 15 9.7 16.1 0.00 9.78 0.00 92 1009.7
20260905010736 15 1.6 9.7 0.00 9.78 0.00 92 1009.7
20260905010636 15 6.4 20.9 0.00 9.78 0.00 92 1009.6
20260905010536 15 6.4 16.1 0.00 9.78 0.00 91 1009.8
20260905010436 15 6.4 16.1 0.00 9.78 0.00 91 1009.7
20260905010336 15 6.4 20.9 0.00 9.78 0.00 91 1009.6
20260905010236 15 6.4 16.1 0.00 9.78 0.00 92 1009.7
20260905010136 15 4.8 20.9 0.00 9.78 0.00 92 1009.7
20260905010036 15 4.8 16.1 0.00 9.78 0.00 92 1009.6
20260905005936 15 8.0 16.1 0.00 9.78 0.00 91 1009.8
20260905005836 15 4.8 16.1 0.00 9.78 0.00 91 1009.9
20260905005736 15 8.0 20.9 0.00 9.78 0.00 91 1009.8
20260905005636 15 11.3 25.7 0.00 9.78 0.00 92 1010.0
20260905005536 15 3.2 9.7 0.00 9.78 0.00 92 1010.0
20260905005436 15 6.4 16.1 0.00 9.78 0.00 92 1009.8
20260905005336 15 6.4 16.1 0.00 9.78 0.00 92 1009.9
20260905005236 15 4.8 9.7 0.00 9.78 0.00 92 1009.9
20260905005136 15 6.4 9.7 0.00 9.78 0.00 92 1009.9
20260905005036 15 6.4 16.1 0.00 9.78 0.00 92 1009.9
20260905004936 15 6.4 25.7 0.00 9.78 0.00 92 1009.9
20260905004836 15 8.0 20.9 0.00 9.78 0.00 92 1010.0
20260905004736 15 9.7 20.9 0.00 9.78 0.00 92 1009.9
20260905004637 15 6.4 20.9 0.00 9.78 0.00 92 1009.9
20260905004537 15 6.4 16.1 0.00 9.78 0.00 92 1009.9
20260905004436 15 3.2 16.1 0.00 9.78 0.00 92 1009.8
20260905004336 15 3.2 9.7 0.00 9.78 0.00 92 1009.9
20260905004236 15 8.0 80.5 0.00 9.78 0.00 92 1010.0
20260905004136 15 4.8 9.7 0.00 9.78 0.00 92 1010.1
20260905004036 15 9.7 16.1 0.00 9.78 0.00 92 1010.0
20260905003936 15 6.4 16.1 0.00 9.78 0.00 92 1272.8
20260905003736 15 6.4 16.1 0.00 9.78 0.00 92 1010.1
20260905003636 15 4.8 9.7 0.00 9.78 0.00 92 1010.0
20260905003536 15 8.0 16.1 0.00 9.78 0.00 92 756.2
20260905003336 15 9.7 41.8 0.00 9.78 0.00 91 1010.1
20260905003136 15 12.9 25.7 0.00 9.78 0.00 92 1010.0
20260905003036 15 6.4 25.7 0.00 9.78 0.00 92 1009.9
20260905002936 15 8.0 16.1 0.00 9.78 0.00 92 1009.7
20260905002836 15 6.4 16.1 0.00 9.78 0.00 92 1009.5
20260905002736 15 6.4 20.9 0.00 9.78 0.00 93 1272.2
20260905002636 15 3.2 9.7 0.00 9.78 0.00 92 1009.6
20260905002536 15 6.4 16.1 0.00 9.78 0.00 92 1009.5
20260905002436 15 8.0 20.9 0.00 9.78 0.00 92 1009.4
20260905002336 15 9.7 20.9 0.00 9.78 0.00 92 1009.5
20260905002136 15 8.0 16.1 0.00 9.78 0.00 93 1272.1
20260905002036 15 6.4 20.9 0.00 9.78 0.00 93 1009.4
20260905001936 15 3.2 16.1 0.00 9.78 0.00 93 1009.1
20260905001836 15 1.6 16.1 0.00 9.78 0.00 92 1008.8
20260905001736 15 9.7 344.4 0.00 9.78 0.00 93 1008.9
20260905001636 15 4.8 16.1 0.00 9.78 0.00 92 1009.2
20260905001536 15 6.4 16.1 0.00 9.78 0.00 92 1009.2
20260905001436 15 6.4 16.1 0.00 9.78 0.00 92 1009.2
20260905001336 15 9.7 20.9 0.00 9.78 0.00 92 1009.3
20260905001236 15 8.0 32.2 0.00 9.78 0.00 92 1009.4
20260905001136 15 8.0 32.2 0.00 9.78 0.00 92 1009.2
20260905001036 15 8.0 20.9 0.00 9.78 0.00 91 1009.2
20260905000936 15 8.0 20.9 0.00 9.78 0.00 91 1009.2
20260905000836 15 8.0 16.1 0.00 9.78 0.00 91 1009.2
20260905000736 16 8.0 25.7 0.00 9.78 0.00 90 1273.1
20260905000636 16 9.7 16.1 0.00 9.78 0.00 90 1009.1
20260905000536 16 9.7 25.7 0.00 9.78 0.00 90 1009.2
20260905000436 16 6.4 9.7 0.00 9.78 0.00 89 1009.2
20260905000336 16 6.4 25.7 0.00 9.78 0.00 89 1009.4
20260905000236 16 9.7 20.9 0.00 9.78 0.00 90 1009.2
20260905000136 16 8.0 25.7 0.00 9.78 0.00 89 1009.4
20260905000036 16 9.7 20.9 0.00 9.78 0.00 89 1009.3
20260904235936 16 8.0 20.9 0.00 9.78 0.00 89 1009.3
20260904235836 16 11.3 20.9 0.00 9.78 0.00 89 1273.4
20260904235736 16 9.7 112.7 0.00 9.78 0.00 89 1009.2
20260904235636 16 8.0 20.9 0.00 9.78 0.00 89 1009.2
20260904235536 16 8.0 16.1 0.00 9.78 0.00 89 1009.1
20260904235436 16 8.0 16.1 0.00 9.78 0.00 89 1009.1
20260904235336 16 8.0 16.1 0.00 9.78 0.00 89 1008.9
20260904235236 16 8.0 16.1 0.00 9.78 0.00 88 1008.9
20260904235136 16 11.3 20.9 0.00 9.78 0.00 89 1009.0
20260904235036 16 8.0 32.2 0.00 9.78 0.00 89 1008.9
20260904234936 16 9.7 20.9 0.00 9.78 0.00 89 1008.9
20260904234836 16 6.4 20.9 0.00 9.78 0.00 89 1008.7
20260904234736 16 9.7 20.9 0.00 9.78 0.00 89 1008.8
20260904234636 16 8.0 20.9 0.00 9.78 0.00 89 1008.7
20260904234536 16 9.7 20.9 0.00 9.78 0.00 90 1008.6
20260904234436 16 4.8 16.1 0.00 9.78 0.00 89 1008.7
20260904234336 16 3.2 9.7 0.00 9.78 0.00 89 1008.6
20260904234236 16 6.4 16.1 0.00 9.78 0.00 89 1008.6
20260904234136 16 8.0 16.1 0.00 9.78 0.00 88 1008.7
20260904233936 16 6.4 16.1 0.00 9.78 0.00 89 1008.7
20260904233836 16 8.0 16.1 0.00 9.78 0.00 90 1577.5
20260904233736 16 4.8 9.7 0.00 9.78 0.00 89 1008.8
20260904233636 16 4.8 16.1 0.00 9.78 0.00 89 1008.7
20260904233536 16 4.8 16.1 0.00 9.78 0.00 89 1008.9
20260904233436 16 3.2 16.1 0.00 9.78 0.00 89 1008.8
20260904233336 16 6.4 20.9 0.00 9.78 0.00 88 1008.8
20260904233236 16 9.7 20.9 0.00 9.78 0.00 89 1272.6
20260904233136 16 8.0 32.2 0.00 9.78 0.00 89 1008.9
20260904233036 16 9.7 25.7 0.00 9.78 0.00 89 1008.8
20260904232936 16 9.7 25.7 0.00 9.78 0.00 89 1270.7
20260904232736 16 8.0 20.9 0.00 9.78 0.00 90 1008.8
20260904232636 16 3.2 16.1 0.00 9.78 0.00 90 1008.8
20260904232536 16 4.8 25.7 0.00 9.78 0.00 89 1272.4
20260904232436 16 9.7 20.9 0.00 9.78 0.00 89 1008.8
20260904232336 16 6.4 16.1 0.00 9.78 0.00 89 1008.9
20260904232236 16 8.0 25.7 0.00 9.78 0.00 89 1009.1
20260904232136 16 8.0 20.9 0.00 9.78 0.00 89 1008.9
20260904232036 16 8.0 20.9 0.00 9.78 0.00 89 1008.9
20260904231936 16 6.4 16.1 0.00 9.78 0.00 89 1008.8
20260904231836 16 6.4 16.1 0.00 9.78 0.00 89 1008.7
20260904231736 16 3.2 25.7 0.00 9.78 0.00 89 1008.6
20260904231636 16 8.0 20.9 0.00 9.78 0.00 89 1270.2
20260904231536 16 9.7 20.9 0.00 9.78 0.00 89 1008.7
20260904231436 16 6.4 16.1 0.00 9.78 0.00 90 1008.7
20260904231336 16 6.4 16.1 0.00 9.78 0.00 90 1008.7
20260904231236 16 4.8 25.7 0.00 9.78 0.00 90 1008.7
20260904231136 17 6.4 16.1 0.00 9.78 0.00 90 1008.6
20260904231036 17 8.0 16.1 0.00 9.78 0.00 90 1008.6
20260904230936 16 8.0 20.9 0.00 9.78 0.00 91 1008.6
20260904230736 16 4.8 9.7 0.00 9.78 0.00 91 1008.5
20260904230636 17 4.8 16.1 0.00 9.78 0.00 91 1008.6
20260904230536 17 4.8 16.1 0.00 9.78 0.00 90 1008.5
20260904230436 17 8.0 20.9 0.00 9.78 0.00 90 1008.6
20260904230336 17 9.7 16.1 0.00 9.78 0.00 90 1008.6
20260904230236 17 11.3 20.9 0.00 9.78 0.00 91 1008.7
20260904230136 17 8.0 16.1 0.00 9.78 0.00 93 1008.6
20260904230036 17 4.8 16.1 0.00 9.78 0.00 92 1008.5
20260904225936 17 4.8 16.1 0.00 9.78 0.00 92 1008.6
20260904225836 17 3.2 9.7 0.00 9.78 0.00 92 1008.5
20260904225736 17 3.2 9.7 0.00 9.78 0.00 92 1008.4
20260904225636 17 6.4 16.1 0.00 9.78 0.00 92 1008.3
20260904225536 17 4.8 25.7 0.00 9.78 0.00 92 1271.8
20260904225436 17 4.8 16.1 0.00 9.78 0.00 93 1008.3
20260904225336 17 3.2 20.9 0.00 9.78 0.00 93 1008.3
20260904225236 17 4.8 16.1 0.00 9.78 0.00 92 1008.4
20260904225136 17 6.4 16.1 0.00 9.78 0.00 92 1008.2
20260904225036 17 4.8 16.1 0.00 9.78 0.00 92 1008.3
20260904224936 17 6.4 16.1 0.00 9.78 0.00 92 1008.2
20260904224836 17 6.4 20.9 0.00 9.78 0.00 92 1271.3
20260904224736 17 4.8 16.1 0.00 9.78 0.00 93 1008.0
20260904224636 17 1.6 9.7 0.00 9.78 0.00 92 1007.9
20260904224536 17 3.2 20.9 0.00 9.78 0.00 92 1008.0
20260904224436 17 3.2 16.1 0.00 9.78 0.00 93 1008.0
20260904224336 17 1.6 4.8 0.00 9.78 0.00 92 1269.4
20260904224236 17 3.2 9.7 0.00 9.78 0.00 93 1008.0
20260904224136 17 4.8 9.7 0.00 9.78 0.00 93 1008.1
20260904224036 17 3.2 9.7 0.00 9.78 0.00 93 1008.0
20260904223936 17 3.2 9.7 0.00 9.78 0.00 92 1008.2
20260904223836 17 3.2 20.9 0.00 9.78 0.00 92 1008.2
20260904223736 17 3.2 9.7 0.00 9.78 0.00 92 1008.2
20260904223636 17 4.8 16.1 0.00 9.78 0.00 92 1008.1
20260904223536 17 4.8 16.1 0.00 9.78 0.00 93 1008.2
20260904223436 17 1.6 9.7 0.00 9.78 0.00 93 1008.1
20260904223336 17 3.2 9.7 0.00 9.78 0.00 93 1008.2
20260904223236 17 3.2 16.1 0.00 9.78 0.00 93 1008.1
20260904223136 17 3.2 9.7 0.00 9.78 0.00 93 1008.1
20260904223036 17 3.2 9.7 0.00 9.78 0.00 93 1008.0
20260904222936 17 3.2 9.7 0.00 9.78 0.00 93 1007.9
20260904222836 17 3.2 9.7 0.00 9.78 0.00 93 1009.7
20260904222736 17 3.2 9.7 0.00 9.78 0.00 93 1009.6
20260904222636 17 3.2 9.7 0.00 9.78 0.00 93 1009.7
20260904222536 17 3.2 25.7 0.00 9.78 0.00 93 1009.6
20260904222436 17 4.8 16.1 0.00 9.78 0.00 93 1007.8
20260904222336 17 3.2 9.7 0.00 9.78 0.00 93 1007.7
20260904222236 17 3.2 9.7 0.00 9.78 0.00 93 1007.6
20260904222136 17 3.2 16.1 0.00 9.78 0.00 93 1007.7
20260904222036 17 3.2 16.1 0.00 9.78 0.00 94 1007.8
20260904221936 17 3.2 9.7 0.00 9.78 0.00 94 1007.8
20260904221836 17 3.2 16.1 0.00 9.78 0.00 94 1007.7
20260904221736 17 1.6 16.1 0.00 9.78 0.00 94 1007.6
20260904221636 17 3.2 9.7 0.00 9.78 0.00 94 1007.5
20260904221536 17 3.2 9.7 0.00 9.78 0.00 95 1007.5
20260904221436 17 1.6 9.7 0.00 9.78 0.00 95 1268.7
20260904221336 17 3.2 9.7 0.00 9.78 0.00 95 1268.6
20260904221236 17 1.6 9.7 0.00 9.78 0.00 95 1007.3
20260904221136 17 3.2 9.7 0.00 9.78 0.00 95 1007.2
20260904221036 17 3.2 9.7 0.00 9.78 0.00 95 1007.2
20260904220936 17 3.2 16.1 0.00 9.78 0.00 95 1007.2
20260904220736 17 3.2 9.7 0.00 9.78 0.00 95 1007.2
20260904220536 17 4.8 16.1 0.00 9.78 0.00 95 1007.4
20260904220436 17 0.0 4.8 0.00 9.78 0.00 95 1007.4
20260904220336 17 1.6 4.8 0.00 9.78 0.00 95 1007.6
20260904220236 17 0.0 4.8 0.00 9.78 0.00 95 1268.8
20260904220136 17 0.0 4.8 0.00 9.78 0.00 95 1007.6
20260904220036 17 0.0 4.8 0.00 9.78 0.00 95 1007.6
20260904215936 17 3.2 9.7 0.00 9.78 0.00 95 1007.6
20260904215836 17 4.8 16.1 0.00 9.78 0.00 95 1007.6
20260904215736 17 1.6 9.7 0.00 9.78 0.00 95 1270.7
20260904215636 17 3.2 9.7 0.00 9.78 0.00 95 1007.7
20260904215536 17 1.6 4.8 0.00 9.78 0.00 95 1007.7
20260904215436 17 1.6 4.8 0.00 9.78 0.00 95 1007.7
20260904215336 17 1.6 9.7 0.00 9.78 0.00 95 1007.8
20260904215236 17 4.8 9.7 0.00 9.78 0.00 95 1007.7
20260904215136 17 3.2 16.1 0.00 9.78 0.00 95 1007.7
20260904214936 17 1.6 9.7 0.00 9.78 0.00 95 1268.9
20260904214736 17 1.6 4.8 0.00 9.78 0.00 94 1007.6
20260904214636 17 1.6 9.7 0.00 9.78 0.00 94 1007.6
20260904214536 17 1.6 20.9 2.18 9.78 0.00 94 1009.3
20260904214436 17 3.2 9.7 2.18 9.78 0.00 94 1007.5
20260904214336 17 1.6 4.8 2.18 9.78 0.00 94 1268.8
20260904214136 17 4.8 16.1 2.18 9.78 0.00 94 1007.6
20260904214036 17 4.8 16.1 2.18 9.78 0.00 94 1007.5
20260904213936 17 1.6 4.8 2.18 9.78 0.00 94 1007.5
20260904213836 17 3.2 9.7 2.18 9.78 0.00 94 1007.5
20260904213736 17 3.2 16.1 2.18 9.78 0.00 95 1270.6
20260904213636 17 1.6 9.7 2.18 9.78 0.00 94 1007.5
20260904213536 17 0.0 4.8 2.18 9.78 0.00 94 1007.4
20260904213436 17 0.0 9.7 2.18 9.78 0.00 94 1246.0
20260904213336 17 3.2 9.7 2.18 9.78 0.00 94 1007.4
20260904213236 17 3.2 9.7 2.18 9.78 0.00 94 754.1
20260904213136 17 0.0 4.8 2.18 9.78 0.00 94 1007.4
20260904213036 17 3.2 9.7 2.18 9.78 0.00 94 1007.6
20260904212836 16 3.2 9.7 2.18 9.78 0.00 94 1007.8
20260904212736 16 4.8 16.1 2.18 9.78 0.00 94 1269.0
20260904212636 16 1.6 9.7 2.18 9.78 0.00 94 1007.7
20260904212536 16 1.6 9.7 2.18 9.78 0.00 94 1007.7
20260904212336 17 1.6 9.7 2.18 9.78 0.00 94 1007.8
20260904212236 17 3.2 9.7 2.18 9.78 0.00 94 1007.9
20260904212136 16 3.2 9.7 2.18 9.78 0.00 94 1007.8
20260904212036 17 3.2 9.7 2.18 9.78 0.00 94 1007.8
20260904211936 17 3.2 9.7 2.18 9.78 0.00 94 1007.7
20260904211835 17 3.2 9.7 2.18 9.78 0.00 94 1007.7
20260904211736 17 3.2 9.7 2.18 9.78 0.00 94 1007.8
20260904211636 17 3.2 9.7 2.18 9.78 0.00 94 1273.4
20260904211436 17 0.0 4.8 2.18 9.78 0.00 94 1007.7
20260904211336 17 1.6 16.1 2.18 9.78 0.00 94 1007.8
20260904211036 17 1.6 4.8 2.18 9.78 0.00 94 1270.8
20260904210936 17 3.2 9.7 2.18 9.78 0.00 94 1269.0
20260904210735 17 3.2 9.7 2.18 9.78 0.00 94 1007.8
20260904210635 17 3.2 20.9 2.18 9.78 0.00 94 1007.8
20260904210436 17 1.6 9.7 2.18 9.78 0.00 94 1007.6
20260904205936 17 1.6 4.8 2.18 9.78 0.00 94 1268.8
20260904205836 17 1.6 9.7 2.18 9.78 0.00 94 1268.7
20260904205736 17 1.6 4.8 2.18 9.78 0.00 94 1007.4
20260904205536 17 3.2 4.8 2.18 9.78 0.00 95 1020.5
20260904205436 17 3.2 9.7 2.18 9.78 0.00 95 1473.6
20260904205335 17 1.6 4.8 2.18 9.78 0.00 94 976.3
20260904205235 17 0.0 4.8 4.19 9.78 0.00 94 1052.0
20260904205135 17 1.6 9.7 4.19 9.78 0.00 94 976.3
20260904204936 17 1.6 9.7 4.19 9.78 0.00 95 901.3
20260904204736 17 1.6 4.8 4.19 9.78 0.00 94 1007.5
20260904204535 17 0.0 9.7 4.19 9.78 0.00 95 1268.7
20260904204435 17 1.6 9.7 1.98 9.55 0.00 94 1270.8
20260904204336 17 0.0 4.8 1.98 9.55 0.00 94 1007.5
20260904203836 17 1.6 9.7 6.10 9.55 0.00 94 1270.8
20260904203736 17 1.6 9.7 6.10 9.55 0.00 94 1007.6
20260904203636 17 3.2 4.8 8.69 9.55 0.00 94 1007.6
20260904203435 17 3.2 9.7 8.69 9.55 0.00 94 1270.4
20260904203235 17 1.6 9.7 13.39 9.55 0.00 94 1270.4
20260904203036 17 3.2 9.7 19.00 9.55 0.00 94 1008.6
20260904202636 17 3.2 9.7 23.98 9.55 0.00 94 1007.7
20260904202536 17 4.8 9.7 23.98 9.55 0.00 94 1007.7
20260904202436 17 0.0 4.8 23.98 9.55 0.00 94 1007.6
20260904202336 17 3.2 16.1 8.31 9.55 0.00 93 1007.7
20260904202135 17 6.4 9.7 8.31 9.55 0.00 93 1007.9
20260904202036 17 6.4 16.1 8.31 9.55 0.00 94 1008.0
20260904201935 17 3.2 4.8 8.31 9.55 0.00 94 754.7
20260904201836 17 3.2 9.7 8.31 9.55 0.00 93 1008.1
20260904201735 17 4.8 9.7 8.31 9.55 0.00 93 1707.5
20260904201636 17 3.2 20.9 8.31 9.55 0.00 93 1205.7
20260904201536 17 4.8 16.1 8.97 9.55 0.00 93 1008.2
20260904201436 17 6.4 16.1 8.97 9.55 0.00 93 1008.3
20260904201336 17 6.4 25.7 8.97 9.55 0.00 93 1271.8
20260904201236 17 8.0 16.1 8.97 9.55 0.00 94 1008.2
20260904201036 17 6.4 16.1 8.97 9.55 0.00 94 1008.1
20260904200936 17 3.2 9.7 8.97 9.55 0.00 94 1008.1
20260904200736 17 4.8 9.7 9.55 9.55 0.00 95 1007.9
20260904200535 17 1.6 9.7 9.55 9.55 0.00 95 1007.7
20260904200435 17 4.8 9.7 9.55 9.55 0.00 94 1271.2
20260904200335 18 6.4 16.1 9.55 9.55 0.00 94 1007.9
20260904200136 18 4.8 9.7 9.55 9.55 0.00 94 1008.0
20260904195935 18 4.8 16.1 9.55 9.55 0.00 94 1008.0
20260904195836 18 8.0 20.9 9.55 9.55 0.00 95 1008.0